Wetterdaten: Dienstag, 12.10.2021
Datum Zeit Temperatur Temp. +5 cm Temp. -10 cm Feuchte A. Luftdruck Regen Wind Richtung Richtung Zeit Sonne UV-I Solarstrahlg Taupunkt Windchill Windben
12.10.2021 00:00 8,9 C 7,2 C 11,7 C 87 % 1021,8 hPa 0,0 l/m 5,7 km/h (2 Bft) NW 312 0 min 0,0 UV-I 0 W/m 6,9 C 8,3 C 9,7 km/h (2 Bft)
12.10.2021 00:02 8,9 C 7,2 C 11,7 C 87 % 1021,8 hPa 0,0 l/m 2,8 km/h (1 Bft) NW 317 0 min 0,0 UV-I 0 W/m 6,9 C 8,9 C 6,4 km/h (2 Bft)
12.10.2021 00:04 8,8 C 7,2 C 12,2 C 87 % 1021,8 hPa 0,0 l/m 3,9 km/h (1 Bft) N 11 0 min 0,0 UV-I 0 W/m 6,8 C 8,8 C 8,0 km/h (2 Bft)
12.10.2021 00:06 8,8 C 7,2 C 11,7 C 87 % 1021,8 hPa 0,0 l/m 2,3 km/h (1 Bft) N-NW 344 0 min 0,0 UV-I 0 W/m 6,8 C 8,8 C 6,4 km/h (2 Bft)
12.10.2021 00:08 8,8 C 7,2 C 11,7 C 87 % 1021,8 hPa 0,0 l/m 1,5 km/h (1 Bft) NW 308 0 min 0,0 UV-I 0 W/m 6,8 C 8,8 C 6,4 km/h (2 Bft)
12.10.2021 00:10 8,7 C 6,7 C 12,2 C 87 % 1021,8 hPa 0,0 l/m 4,2 km/h (1 Bft) NW 323 0 min 0,0 UV-I 0 W/m 6,7 C 8,7 C 8,0 km/h (2 Bft)
12.10.2021 00:12 8,7 C 6,7 C 11,7 C 87 % 1021,7 hPa 0,0 l/m 5,0 km/h (1 Bft) N-NW 329 0 min 0,0 UV-I 0 W/m 6,7 C 8,3 C 9,7 km/h (2 Bft)
12.10.2021 00:14 8,7 C 6,7 C 11,7 C 87 % 1021,7 hPa 0,0 l/m 6,0 km/h (2 Bft) NW 312 0 min 0,0 UV-I 0 W/m 6,7 C 8,0 C 11,3 km/h (2 Bft)
12.10.2021 00:16 8,7 C 6,7 C 12,2 C 87 % 1021,8 hPa 0,0 l/m 4,7 km/h (1 Bft) N-NW 338 0 min 0,0 UV-I 0 W/m 6,7 C 8,4 C 9,7 km/h (2 Bft)
12.10.2021 00:18 8,7 C 7,2 C 11,7 C 87 % 1021,7 hPa 0,0 l/m 3,4 km/h (1 Bft) N-NW 339 0 min 0,0 UV-I 0 W/m 6,7 C 8,7 C 8,0 km/h (2 Bft)
12.10.2021 00:20 8,6 C 7,2 C 11,7 C 87 % 1021,7 hPa 0,0 l/m 2,2 km/h (1 Bft) N-NW 348 0 min 0,0 UV-I 0 W/m 6,6 C 8,6 C 6,4 km/h (2 Bft)
12.10.2021 00:22 8,6 C 6,7 C 11,7 C 87 % 1021,7 hPa 0,0 l/m 2,9 km/h (1 Bft) W-NW 301 0 min 0,0 UV-I 0 W/m 6,6 C 8,6 C 8,0 km/h (2 Bft)
12.10.2021 00:24 8,5 C 6,7 C 11,7 C 88 % 1021,7 hPa 0,0 l/m 3,2 km/h (1 Bft) N-NW 347 0 min 0,0 UV-I 0 W/m 6,6 C 8,5 C 6,4 km/h (2 Bft)
12.10.2021 00:26 8,5 C 6,7 C 11,7 C 87 % 1021,7 hPa 0,0 l/m 4,2 km/h (1 Bft) N-NW 330 0 min 0,0 UV-I 0 W/m 6,5 C 8,5 C 6,4 km/h (2 Bft)
12.10.2021 00:28 8,4 C 6,1 C 11,7 C 87 % 1021,7 hPa 0,0 l/m 3,5 km/h (1 Bft) N 357 0 min 0,0 UV-I 0 W/m 6,4 C 8,4 C 8,0 km/h (2 Bft)
12.10.2021 00:30 8,4 C 6,7 C 11,7 C 88 % 1021,7 hPa 0,0 l/m 2,7 km/h (1 Bft) N-NW 335 0 min 0,0 UV-I 0 W/m 6,5 C 8,4 C 6,4 km/h (2 Bft)
12.10.2021 00:32 8,4 C 6,7 C 11,7 C 88 % 1021,7 hPa 0,0 l/m 4,2 km/h (1 Bft) N 356 0 min 0,0 UV-I 0 W/m 6,5 C 8,4 C 9,7 km/h (2 Bft)
12.10.2021 00:34 8,4 C 6,7 C 11,7 C 88 % 1021,7 hPa 0,0 l/m 2,7 km/h (1 Bft) N-NW 332 0 min 0,0 UV-I 0 W/m 6,5 C 8,4 C 8,0 km/h (2 Bft)
12.10.2021 00:36 8,4 C 6,7 C 11,7 C 88 % 1021,7 hPa 0,0 l/m 4,1 km/h (1 Bft) NW 326 0 min 0,0 UV-I 0 W/m 6,5 C 8,4 C 6,4 km/h (2 Bft)
12.10.2021 00:38 8,4 C 6,7 C 12,2 C 88 % 1021,7 hPa 0,0 l/m 3,7 km/h (1 Bft) W-NW 303 0 min 0,0 UV-I 0 W/m 6,5 C 8,4 C 8,0 km/h (2 Bft)
12.10.2021 00:40 8,3 C 6,7 C 12,2 C 88 % 1021,7 hPa 0,0 l/m 3,3 km/h (1 Bft) N-NW 342 0 min 0,0 UV-I 0 W/m 6,4 C 8,3 C 6,4 km/h (2 Bft)
12.10.2021 00:42 8,3 C 6,1 C 11,7 C 88 % 1021,7 hPa 0,0 l/m 4,1 km/h (1 Bft) NW 323 0 min 0,0 UV-I 0 W/m 6,4 C 8,3 C 8,0 km/h (2 Bft)
12.10.2021 00:44 8,2 C 5,6 C 11,7 C 88 % 1021,7 hPa 0,0 l/m 2,0 km/h (1 Bft) N-NW 329 0 min 0,0 UV-I 0 W/m 6,3 C 8,2 C 6,4 km/h (2 Bft)
12.10.2021 00:46 8,2 C 6,1 C 11,7 C 88 % 1021,7 hPa 0,0 l/m 3,5 km/h (1 Bft) NW 308 0 min 0,0 UV-I 0 W/m 6,3 C 8,2 C 6,4 km/h (2 Bft)
12.10.2021 00:48 8,2 C 6,1 C 11,7 C 88 % 1021,7 hPa 0,0 l/m 1,3 km/h (1 Bft) N-NW 333 0 min 0,0 UV-I 0 W/m 6,3 C 8,2 C 4,8 km/h (1 Bft)
12.10.2021 00:50 8,2 C 5,6 C 11,7 C 88 % 1021,6 hPa 0,0 l/m 1,8 km/h (1 Bft) W-NW 302 0 min 0,0 UV-I 0 W/m 6,3 C 8,2 C 4,8 km/h (1 Bft)
12.10.2021 00:52 8,1 C 5,6 C 11,7 C 88 % 1021,6 hPa 0,0 l/m 1,7 km/h (1 Bft) N-NW 328 0 min 0,0 UV-I 0 W/m 6,2 C 8,1 C 4,8 km/h (1 Bft)
12.10.2021 00:54 8,1 C 5,6 C 11,7 C 88 % 1021,7 hPa 0,0 l/m 0,6 km/h (0 Bft) N-NW 329 0 min 0,0 UV-I 0 W/m 6,2 C 8,1 C 1,6 km/h (1 Bft)
12.10.2021 00:56 8,0 C 5,0 C 11,7 C 88 % 1021,7 hPa 0,0 l/m 0,6 km/h (0 Bft) N-NW 329 0 min 0,0 UV-I 0 W/m 6,1 C 8,0 C 1,6 km/h (1 Bft)
12.10.2021 00:58 7,9 C 4,4 C 11,7 C 88 % 1021,7 hPa 0,0 l/m 0,2 km/h (0 Bft) N-NW 329 0 min 0,0 UV-I 0 W/m 6,0 C 7,9 C 1,6 km/h (1 Bft)
12.10.2021 01:00 7,8 C 4,4 C 11,7 C 88 % 1021,7 hPa 0,0 l/m 2,1 km/h (1 Bft) NW 306 0 min 0,0 UV-I 0 W/m 5,9 C 7,8 C 4,8 km/h (1 Bft)
12.10.2021 01:02 7,8 C 4,4 C 11,7 C 88 % 1021,7 hPa 0,0 l/m 1,5 km/h (1 Bft) NW 309 0 min 0,0 UV-I 0 W/m 5,9 C 7,8 C 4,8 km/h (1 Bft)
12.10.2021 01:04 7,8 C 5,0 C 11,7 C 88 % 1021,6 hPa 0,0 l/m 2,0 km/h (1 Bft) W-NW 294 0 min 0,0 UV-I 0 W/m 5,9 C 7,8 C 4,8 km/h (1 Bft)
12.10.2021 01:06 7,8 C 5,0 C 11,7 C 88 % 1021,7 hPa 0,0 l/m 1,8 km/h (1 Bft) W-NW 296 0 min 0,0 UV-I 0 W/m 5,9 C 7,8 C 3,2 km/h (1 Bft)
12.10.2021 01:08 7,7 C 5,0 C 11,7 C 88 % 1021,7 hPa 0,0 l/m 0,9 km/h (0 Bft) W-NW 284 0 min 0,0 UV-I 0 W/m 5,8 C 7,7 C 3,2 km/h (1 Bft)
12.10.2021 01:10 7,7 C 4,4 C 11,7 C 89 % 1021,7 hPa 0,0 l/m 1,0 km/h (0 Bft) NW 308 0 min 0,0 UV-I 0 W/m 6,0 C 7,7 C 4,8 km/h (1 Bft)
12.10.2021 01:12 7,7 C 5,0 C 11,7 C 89 % 1021,7 hPa 0,0 l/m 3,9 km/h (1 Bft) W-NW 282 0 min 0,0 UV-I 0 W/m 6,0 C 7,7 C 6,4 km/h (2 Bft)
12.10.2021 01:14 7,7 C 5,6 C 11,7 C 89 % 1021,6 hPa 0,0 l/m 3,3 km/h (1 Bft) NW 304 0 min 0,0 UV-I 0 W/m 6,0 C 7,7 C 8,0 km/h (2 Bft)
12.10.2021 01:16 7,8 C 5,6 C 11,7 C 89 % 1021,6 hPa 0,0 l/m 3,0 km/h (1 Bft) W-NW 283 0 min 0,0 UV-I 0 W/m 6,1 C 7,8 C 4,8 km/h (1 Bft)
12.10.2021 01:18 7,8 C 6,1 C 11,7 C 89 % 1021,6 hPa 0,0 l/m 2,7 km/h (1 Bft) W-NW 294 0 min 0,0 UV-I 0 W/m 6,1 C 7,8 C 6,4 km/h (2 Bft)
12.10.2021 01:20 7,8 C 5,6 C 11,7 C 89 % 1021,6 hPa 0,0 l/m 1,9 km/h (1 Bft) W-NW 303 0 min 0,0 UV-I 0 W/m 6,1 C 7,8 C 6,4 km/h (2 Bft)
12.10.2021 01:22 7,8 C 5,6 C 11,7 C 89 % 1021,6 hPa 0,0 l/m 2,1 km/h (1 Bft) NW 304 0 min 0,0 UV-I 0 W/m 6,1 C 7,8 C 4,8 km/h (1 Bft)
12.10.2021 01:24 7,7 C 5,6 C 11,7 C 89 % 1021,6 hPa 0,0 l/m 1,2 km/h (1 Bft) NW 312 0 min 0,0 UV-I 0 W/m 6,0 C 7,7 C 4,8 km/h (1 Bft)
12.10.2021 01:26 7,7 C 5,6 C 11,7 C 89 % 1021,7 hPa 0,0 l/m 3,4 km/h (1 Bft) W-NW 298 0 min 0,0 UV-I 0 W/m 6,0 C 7,7 C 8,0 km/h (2 Bft)
12.10.2021 01:28 7,8 C 5,6 C 11,7 C 89 % 1021,7 hPa 0,0 l/m 1,9 km/h (1 Bft) NW 308 0 min 0,0 UV-I 0 W/m 6,1 C 7,8 C 6,4 km/h (2 Bft)
12.10.2021 01:30 7,8 C 6,1 C 11,7 C 89 % 1021,7 hPa 0,0 l/m 3,2 km/h (1 Bft) W-NW 292 0 min 0,0 UV-I 0 W/m 6,1 C 7,8 C 6,4 km/h (2 Bft)
12.10.2021 01:32 7,8 C 6,1 C 11,7 C 89 % 1021,7 hPa 0,0 l/m 3,4 km/h (1 Bft) NW 305 0 min 0,0 UV-I 0 W/m 6,1 C 7,8 C 4,8 km/h (1 Bft)
12.10.2021 01:34 7,8 C 5,6 C 11,7 C 89 % 1021,7 hPa 0,0 l/m 3,7 km/h (1 Bft) W 274 0 min 0,0 UV-I 0 W/m 6,1 C 7,8 C 6,4 km/h (2 Bft)
12.10.2021 01:36 7,8 C 5,6 C 11,7 C 89 % 1021,6 hPa 0,0 l/m 2,4 km/h (1 Bft) W-NW 294 0 min 0,0 UV-I 0 W/m 6,1 C 7,8 C 4,8 km/h (1 Bft)
12.10.2021 01:38 7,8 C 5,6 C 11,7 C 89 % 1021,6 hPa 0,0 l/m 3,1 km/h (1 Bft) NW 317 0 min 0,0 UV-I 0 W/m 6,1 C 7,8 C 4,8 km/h (1 Bft)
12.10.2021 01:40 7,8 C 5,6 C 11,7 C 89 % 1021,6 hPa 0,0 l/m 3,0 km/h (1 Bft) W-NW 302 0 min 0,0 UV-I 0 W/m 6,1 C 7,8 C 6,4 km/h (2 Bft)
12.10.2021 01:42 7,8 C 5,6 C 11,7 C 89 % 1021,6 hPa 0,0 l/m 3,5 km/h (1 Bft) NW 304 0 min 0,0 UV-I 0 W/m 6,1 C 7,8 C 6,4 km/h (2 Bft)
12.10.2021 01:44 7,8 C 5,6 C 11,7 C 89 % 1021,7 hPa 0,0 l/m 2,0 km/h (1 Bft) NW 323 0 min 0,0 UV-I 0 W/m 6,1 C 7,8 C 8,0 km/h (2 Bft)
12.10.2021 01:46 7,8 C 6,1 C 11,7 C 89 % 1021,6 hPa 0,0 l/m 6,8 km/h (2 Bft) W-NW 297 0 min 0,0 UV-I 0 W/m 6,1 C 6,7 C 11,3 km/h (2 Bft)
12.10.2021 01:48 7,8 C 6,1 C 11,7 C 89 % 1021,6 hPa 0,0 l/m 4,7 km/h (1 Bft) NW 310 0 min 0,0 UV-I 0 W/m 6,1 C 7,4 C 12,9 km/h (3 Bft)
12.10.2021 01:50 7,9 C 6,1 C 11,7 C 89 % 1021,6 hPa 0,0 l/m 2,8 km/h (1 Bft) NW 310 0 min 0,0 UV-I 0 W/m 6,2 C 7,9 C 6,4 km/h (2 Bft)
12.10.2021 01:52 7,8 C 6,1 C 11,7 C 89 % 1021,5 hPa 0,0 l/m 4,1 km/h (1 Bft) NW 308 0 min 0,0 UV-I 0 W/m 6,1 C 7,8 C 8,0 km/h (2 Bft)
12.10.2021 01:54 7,8 C 6,1 C 11,7 C 89 % 1021,5 hPa 0,0 l/m 4,4 km/h (1 Bft) W-NW 301 0 min 0,0 UV-I 0 W/m 6,1 C 7,8 C 9,7 km/h (2 Bft)
12.10.2021 01:56 7,8 C 6,1 C 11,7 C 89 % 1021,5 hPa 0,0 l/m 4,4 km/h (1 Bft) W-NW 282 0 min 0,0 UV-I 0 W/m 6,1 C 7,8 C 8,0 km/h (2 Bft)
12.10.2021 01:58 7,8 C 6,1 C 11,7 C 89 % 1021,6 hPa 0,0 l/m 4,7 km/h (1 Bft) W-NW 301 0 min 0,0 UV-I 0 W/m 6,1 C 7,4 C 8,0 km/h (2 Bft)
12.10.2021 02:00 7,8 C 6,1 C 11,7 C 89 % 1021,6 hPa 0,0 l/m 4,0 km/h (1 Bft) W-NW 302 0 min 0,0 UV-I 0 W/m 6,1 C 7,8 C 9,7 km/h (2 Bft)
12.10.2021 02:02 7,8 C 6,1 C 11,7 C 89 % 1021,6 hPa 0,0 l/m 2,6 km/h (1 Bft) W-NW 302 0 min 0,0 UV-I 0 W/m 6,1 C 7,8 C 6,4 km/h (2 Bft)
12.10.2021 02:04 7,8 C 6,1 C 11,7 C 89 % 1021,6 hPa 0,0 l/m 3,1 km/h (1 Bft) W-NW 298 0 min 0,0 UV-I 0 W/m 6,1 C 7,8 C 6,4 km/h (2 Bft)
12.10.2021 02:06 7,7 C 5,6 C 11,7 C 89 % 1021,6 hPa 0,0 l/m 4,0 km/h (1 Bft) N-NW 335 0 min 0,0 UV-I 0 W/m 6,0 C 7,7 C 6,4 km/h (2 Bft)
12.10.2021 02:08 7,7 C 5,6 C 11,7 C 89 % 1021,5 hPa 0,0 l/m 3,6 km/h (1 Bft) W-NW 297 0 min 0,0 UV-I 0 W/m 6,0 C 7,7 C 8,0 km/h (2 Bft)
12.10.2021 02:10 7,7 C 5,6 C 11,7 C 89 % 1021,5 hPa 0,0 l/m 4,2 km/h (1 Bft) W-NW 291 0 min 0,0 UV-I 0 W/m 6,0 C 7,7 C 6,4 km/h (2 Bft)
12.10.2021 02:12 7,7 C 5,6 C 11,7 C 89 % 1021,5 hPa 0,0 l/m 4,6 km/h (1 Bft) W-NW 288 0 min 0,0 UV-I 0 W/m 6,0 C 7,3 C 8,0 km/h (2 Bft)
12.10.2021 02:14 7,7 C 5,6 C 11,7 C 89 % 1021,5 hPa 0,0 l/m 3,9 km/h (1 Bft) W 271 0 min 0,0 UV-I 0 W/m 6,0 C 7,7 C 8,0 km/h (2 Bft)
12.10.2021 02:16 7,6 C 5,6 C 11,7 C 89 % 1021,5 hPa 0,0 l/m 4,0 km/h (1 Bft) NW 308 0 min 0,0 UV-I 0 W/m 5,9 C 7,6 C 6,4 km/h (2 Bft)
12.10.2021 02:18 7,6 C 5,0 C 11,7 C 89 % 1021,4 hPa 0,0 l/m 3,9 km/h (1 Bft) W-NW 288 0 min 0,0 UV-I 0 W/m 5,9 C 7,6 C 8,0 km/h (2 Bft)
12.10.2021 02:20 7,6 C 5,0 C 11,7 C 89 % 1021,4 hPa 0,0 l/m 3,2 km/h (1 Bft) NW 317 0 min 0,0 UV-I 0 W/m 5,9 C 7,6 C 4,8 km/h (1 Bft)
12.10.2021 02:22 7,6 C 5,0 C 11,7 C 89 % 1021,4 hPa 0,0 l/m 3,5 km/h (1 Bft) W 276 0 min 0,0 UV-I 0 W/m 5,9 C 7,6 C 6,4 km/h (2 Bft)
12.10.2021 02:24 7,5 C 5,0 C 11,7 C 89 % 1021,4 hPa 0,0 l/m 2,4 km/h (1 Bft) W-NW 297 0 min 0,0 UV-I 0 W/m 5,8 C 7,5 C 6,4 km/h (2 Bft)
12.10.2021 02:26 7,4 C 5,0 C 11,7 C 89 % 1021,4 hPa 0,0 l/m 2,4 km/h (1 Bft) W-NW 295 0 min 0,0 UV-I 0 W/m 5,7 C 7,4 C 6,4 km/h (2 Bft)
12.10.2021 02:28 7,4 C 4,4 C 11,7 C 89 % 1021,3 hPa 0,0 l/m 2,2 km/h (1 Bft) NW 308 0 min 0,0 UV-I 0 W/m 5,7 C 7,4 C 6,4 km/h (2 Bft)
12.10.2021 02:30 7,4 C 5,0 C 11,7 C 89 % 1021,4 hPa 0,0 l/m 3,4 km/h (1 Bft) W-NW 292 0 min 0,0 UV-I 0 W/m 5,7 C 7,4 C 6,4 km/h (2 Bft)
12.10.2021 02:32 7,4 C 5,0 C 11,7 C 89 % 1021,3 hPa 0,0 l/m 1,1 km/h (1 Bft) W-NW 303 0 min 0,0 UV-I 0 W/m 5,7 C 7,4 C 3,2 km/h (1 Bft)
12.10.2021 02:34 7,3 C 5,0 C 11,7 C 89 % 1021,4 hPa 0,0 l/m 2,6 km/h (1 Bft) W-NW 284 0 min 0,0 UV-I 0 W/m 5,6 C 7,3 C 6,4 km/h (2 Bft)
12.10.2021 02:36 7,3 C 4,4 C 11,7 C 89 % 1021,4 hPa 0,0 l/m 4,2 km/h (1 Bft) W-NW 290 0 min 0,0 UV-I 0 W/m 5,6 C 7,3 C 6,4 km/h (2 Bft)
12.10.2021 02:38 7,3 C 5,0 C 11,7 C 89 % 1021,3 hPa 0,0 l/m 4,2 km/h (1 Bft) W-NW 293 0 min 0,0 UV-I 0 W/m 5,6 C 7,3 C 8,0 km/h (2 Bft)
12.10.2021 02:40 7,3 C 5,0 C 11,7 C 89 % 1021,4 hPa 0,0 l/m 3,6 km/h (1 Bft) W-NW 294 0 min 0,0 UV-I 0 W/m 5,6 C 7,3 C 6,4 km/h (2 Bft)
12.10.2021 02:42 7,3 C 5,0 C 11,7 C 89 % 1021,3 hPa 0,0 l/m 2,8 km/h (1 Bft) W 273 0 min 0,0 UV-I 0 W/m 5,6 C 7,3 C 8,0 km/h (2 Bft)
12.10.2021 02:44 7,3 C 5,0 C 11,7 C 89 % 1021,3 hPa 0,0 l/m 2,8 km/h (1 Bft) W-NW 303 0 min 0,0 UV-I 0 W/m 5,6 C 7,3 C 8,0 km/h (2 Bft)
12.10.2021 02:46 7,3 C 5,0 C 11,7 C 89 % 1021,3 hPa 0,0 l/m 3,7 km/h (1 Bft) W-NW 292 0 min 0,0 UV-I 0 W/m 5,6 C 7,3 C 4,8 km/h (1 Bft)
12.10.2021 02:48 7,3 C 5,6 C 11,7 C 89 % 1021,2 hPa 0,0 l/m 4,2 km/h (1 Bft) W 273 0 min 0,0 UV-I 0 W/m 5,6 C 7,3 C 8,0 km/h (2 Bft)
12.10.2021 02:50 7,3 C 5,6 C 11,7 C 89 % 1021,2 hPa 0,0 l/m 4,3 km/h (1 Bft) W-NW 299 0 min 0,0 UV-I 0 W/m 5,6 C 7,3 C 6,4 km/h (2 Bft)
12.10.2021 02:52 7,3 C 6,1 C 11,7 C 89 % 1021,1 hPa 0,0 l/m 3,0 km/h (1 Bft) W 265 0 min 0,0 UV-I 0 W/m 5,6 C 7,3 C 8,0 km/h (2 Bft)
12.10.2021 02:54 7,4 C 6,1 C 11,7 C 89 % 1021,1 hPa 0,0 l/m 5,2 km/h (1 Bft) W-NW 298 0 min 0,0 UV-I 0 W/m 5,7 C 6,7 C 9,7 km/h (2 Bft)
12.10.2021 02:56 7,4 C 6,1 C 11,7 C 89 % 1021,1 hPa 0,0 l/m 5,9 km/h (2 Bft) W-NW 294 0 min 0,0 UV-I 0 W/m 5,7 C 6,5 C 9,7 km/h (2 Bft)
12.10.2021 02:58 7,6 C 6,1 C 11,7 C 90 % 1021,0 hPa 0,0 l/m 5,1 km/h (1 Bft) W-NW 300 0 min 0,0 UV-I 0 W/m 6,1 C 7,0 C 8,0 km/h (2 Bft)
12.10.2021 03:00 7,6 C 6,1 C 11,7 C 90 % 1021,0 hPa 0,0 l/m 3,8 km/h (1 Bft) W-NW 288 0 min 0,0 UV-I 0 W/m 6,1 C 7,6 C 9,7 km/h (2 Bft)
12.10.2021 03:02 7,6 C 6,1 C 11,7 C 90 % 1021,0 hPa 0,0 l/m 2,6 km/h (1 Bft) NW 311 0 min 0,0 UV-I 0 W/m 6,1 C 7,6 C 6,4 km/h (2 Bft)
12.10.2021 03:04 7,7 C 6,1 C 11,7 C 90 % 1020,9 hPa 0,0 l/m 3,9 km/h (1 Bft) W-NW 283 0 min 0,0 UV-I 0 W/m 6,2 C 7,7 C 6,4 km/h (2 Bft)
12.10.2021 03:06 7,6 C 5,6 C 11,7 C 89 % 1020,9 hPa 0,0 l/m 2,0 km/h (1 Bft) W-NW 296 0 min 0,0 UV-I 0 W/m 5,9 C 7,6 C 6,4 km/h (2 Bft)
12.10.2021 03:08 7,6 C 5,6 C 11,7 C 89 % 1020,9 hPa 0,0 l/m 4,7 km/h (1 Bft) W-NW 303 0 min 0,0 UV-I 0 W/m 5,9 C 7,1 C 8,0 km/h (2 Bft)
12.10.2021 03:10 7,5 C 5,6 C 11,7 C 89 % 1020,8 hPa 0,0 l/m 3,2 km/h (1 Bft) W-NW 290 0 min 0,0 UV-I 0 W/m 5,8 C 7,5 C 6,4 km/h (2 Bft)
12.10.2021 03:12 7,6 C 5,6 C 11,7 C 89 % 1020,8 hPa 0,0 l/m 2,5 km/h (1 Bft) W-NW 286 0 min 0,0 UV-I 0 W/m 5,9 C 7,6 C 4,8 km/h (1 Bft)
12.10.2021 03:14 7,5 C 5,0 C 11,7 C 89 % 1020,8 hPa 0,0 l/m 1,3 km/h (1 Bft) W-NW 298 0 min 0,0 UV-I 0 W/m 5,8 C 7,5 C 4,8 km/h (1 Bft)
12.10.2021 03:16 7,4 C 4,4 C 11,7 C 89 % 1020,7 hPa 0,0 l/m 2,7 km/h (1 Bft) W-NW 302 0 min 0,0 UV-I 0 W/m 5,7 C 7,4 C 6,4 km/h (2 Bft)
12.10.2021 03:18 7,3 C 4,4 C 11,7 C 89 % 1020,7 hPa 0,0 l/m 2,3 km/h (1 Bft) W 279 0 min 0,0 UV-I 0 W/m 5,6 C 7,3 C 4,8 km/h (1 Bft)
12.10.2021 03:20 7,3 C 4,4 C 11,7 C 89 % 1020,7 hPa 0,0 l/m 2,5 km/h (1 Bft) W 279 0 min 0,0 UV-I 0 W/m 5,6 C 7,3 C 4,8 km/h (1 Bft)
12.10.2021 03:22 7,2 C 4,4 C 11,7 C 89 % 1020,8 hPa 0,0 l/m 3,8 km/h (1 Bft) W-NW 289 0 min 0,0 UV-I 0 W/m 5,5 C 7,2 C 6,4 km/h (2 Bft)
12.10.2021 03:24 7,2 C 4,4 C 11,7 C 89 % 1020,7 hPa 0,0 l/m 3,3 km/h (1 Bft) W-NW 285 0 min 0,0 UV-I 0 W/m 5,5 C 7,2 C 6,4 km/h (2 Bft)
12.10.2021 03:26 7,2 C 3,9 C 11,7 C 89 % 1020,7 hPa 0,0 l/m 3,4 km/h (1 Bft) W-NW 289 0 min 0,0 UV-I 0 W/m 5,5 C 7,2 C 6,4 km/h (2 Bft)
12.10.2021 03:28 7,1 C 3,9 C 11,7 C 89 % 1020,6 hPa 0,0 l/m 3,4 km/h (1 Bft) W-NW 282 0 min 0,0 UV-I 0 W/m 5,4 C 7,1 C 4,8 km/h (1 Bft)
12.10.2021 03:30 7,1 C 4,4 C 11,7 C 89 % 1020,6 hPa 0,0 l/m 4,4 km/h (1 Bft) W 269 0 min 0,0 UV-I 0 W/m 5,4 C 7,1 C 6,4 km/h (2 Bft)
12.10.2021 03:32 7,1 C 4,4 C 11,7 C 89 % 1020,5 hPa 0,0 l/m 4,0 km/h (1 Bft) W 273 0 min 0,0 UV-I 0 W/m 5,4 C 7,1 C 6,4 km/h (2 Bft)
12.10.2021 03:34 7,1 C 4,4 C 11,7 C 89 % 1020,5 hPa 0,0 l/m 3,4 km/h (1 Bft) W-NW 291 0 min 0,0 UV-I 0 W/m 5,4 C 7,1 C 4,8 km/h (1 Bft)
12.10.2021 03:36 7,0 C 4,4 C 11,7 C 89 % 1020,5 hPa 0,0 l/m 3,9 km/h (1 Bft) W-NW 296 0 min 0,0 UV-I 0 W/m 5,3 C 7,0 C 6,4 km/h (2 Bft)
12.10.2021 03:38 7,1 C 4,4 C 11,7 C 90 % 1020,5 hPa 0,0 l/m 4,6 km/h (1 Bft) NW 306 0 min 0,0 UV-I 0 W/m 5,6 C 6,6 C 8,0 km/h (2 Bft)
12.10.2021 03:40 7,1 C 4,4 C 11,7 C 90 % 1020,5 hPa 0,0 l/m 3,6 km/h (1 Bft) W-NW 300 0 min 0,0 UV-I 0 W/m 5,6 C 7,1 C 6,4 km/h (2 Bft)
12.10.2021 03:42 7,1 C 5,0 C 11,7 C 90 % 1020,5 hPa 0,0 l/m 3,9 km/h (1 Bft) NW 308 0 min 0,0 UV-I 0 W/m 5,6 C 7,1 C 6,4 km/h (2 Bft)
12.10.2021 03:44 7,1 C 5,0 C 11,7 C 89 % 1020,5 hPa 0,0 l/m 4,0 km/h (1 Bft) W-NW 298 0 min 0,0 UV-I 0 W/m 5,4 C 7,1 C 6,4 km/h (2 Bft)
12.10.2021 03:46 7,0 C 4,4 C 11,7 C 89 % 1020,4 hPa 0,0 l/m 3,0 km/h (1 Bft) NW 306 0 min 0,0 UV-I 0 W/m 5,3 C 7,0 C 6,4 km/h (2 Bft)
12.10.2021 03:48 7,0 C 4,4 C 11,7 C 89 % 1020,4 hPa 0,0 l/m 3,7 km/h (1 Bft) W-NW 295 0 min 0,0 UV-I 0 W/m 5,3 C 7,0 C 6,4 km/h (2 Bft)
12.10.2021 03:50 7,0 C 4,4 C 11,7 C 90 % 1020,3 hPa 0,0 l/m 3,9 km/h (1 Bft) W-NW 288 0 min 0,0 UV-I 0 W/m 5,5 C 7,0 C 6,4 km/h (2 Bft)
12.10.2021 03:52 7,0 C 4,4 C 11,7 C 90 % 1020,3 hPa 0,0 l/m 4,6 km/h (1 Bft) W-NW 296 0 min 0,0 UV-I 0 W/m 5,5 C 6,5 C 8,0 km/h (2 Bft)
12.10.2021 03:54 7,0 C 4,4 C 11,7 C 90 % 1020,2 hPa 0,0 l/m 4,3 km/h (1 Bft) W-NW 289 0 min 0,0 UV-I 0 W/m 5,5 C 7,0 C 6,4 km/h (2 Bft)
12.10.2021 03:56 6,9 C 4,4 C 11,7 C 90 % 1020,2 hPa 0,0 l/m 3,5 km/h (1 Bft) W-NW 298 0 min 0,0 UV-I 0 W/m 5,4 C 6,9 C 6,4 km/h (2 Bft)
12.10.2021 03:58 6,9 C 3,9 C 11,7 C 90 % 1020,1 hPa 0,0 l/m 4,3 km/h (1 Bft) W 269 0 min 0,0 UV-I 0 W/m 5,4 C 6,9 C 6,4 km/h (2 Bft)
12.10.2021 04:00 6,9 C 3,9 C 11,7 C 90 % 1020,1 hPa 0,0 l/m 3,6 km/h (1 Bft) W-NW 287 0 min 0,0 UV-I 0 W/m 5,4 C 6,9 C 6,4 km/h (2 Bft)
12.10.2021 04:02 6,9 C 3,9 C 11,7 C 90 % 1020,1 hPa 0,0 l/m 2,7 km/h (1 Bft) W-NW 292 0 min 0,0 UV-I 0 W/m 5,4 C 6,9 C 4,8 km/h (1 Bft)
12.10.2021 04:04 6,8 C 4,4 C 11,7 C 90 % 1020,0 hPa 0,0 l/m 5,5 km/h (2 Bft) W-NW 296 0 min 0,0 UV-I 0 W/m 5,3 C 6,0 C 8,0 km/h (2 Bft)
12.10.2021 04:06 6,9 C 5,0 C 11,7 C 90 % 1020,0 hPa 0,0 l/m 4,3 km/h (1 Bft) NW 314 0 min 0,0 UV-I 0 W/m 5,4 C 6,9 C 8,0 km/h (2 Bft)
12.10.2021 04:08 6,9 C 4,4 C 11,7 C 90 % 1020,0 hPa 0,0 l/m 4,2 km/h (1 Bft) W-NW 292 0 min 0,0 UV-I 0 W/m 5,4 C 6,9 C 6,4 km/h (2 Bft)
12.10.2021 04:10 6,9 C 5,0 C 11,7 C 90 % 1020,0 hPa 0,0 l/m 4,3 km/h (1 Bft) W-NW 283 0 min 0,0 UV-I 0 W/m 5,4 C 6,9 C 8,0 km/h (2 Bft)
12.10.2021 04:12 6,9 C 4,4 C 11,7 C 90 % 1019,9 hPa 0,0 l/m 4,0 km/h (1 Bft) W-NW 302 0 min 0,0 UV-I 0 W/m 5,4 C 6,9 C 9,7 km/h (2 Bft)
12.10.2021 04:14 6,9 C 5,0 C 11,7 C 90 % 1019,9 hPa 0,0 l/m 4,3 km/h (1 Bft) NW 313 0 min 0,0 UV-I 0 W/m 5,4 C 6,9 C 8,0 km/h (2 Bft)
12.10.2021 04:16 6,9 C 4,4 C 11,7 C 90 % 1020,0 hPa 0,0 l/m 2,1 km/h (1 Bft) NW 306 0 min 0,0 UV-I 0 W/m 5,4 C 6,9 C 3,2 km/h (1 Bft)
12.10.2021 04:18 6,9 C 4,4 C 11,7 C 90 % 1019,9 hPa 0,0 l/m 3,5 km/h (1 Bft) W-NW 296 0 min 0,0 UV-I 0 W/m 5,4 C 6,9 C 8,0 km/h (2 Bft)
12.10.2021 04:20 6,8 C 3,9 C 11,7 C 90 % 1019,9 hPa 0,0 l/m 2,6 km/h (1 Bft) W-NW 302 0 min 0,0 UV-I 0 W/m 5,3 C 6,8 C 4,8 km/h (1 Bft)
12.10.2021 04:22 6,8 C 3,9 C 11,7 C 90 % 1019,9 hPa 0,0 l/m 2,4 km/h (1 Bft) W-NW 288 0 min 0,0 UV-I 0 W/m 5,3 C 6,8 C 4,8 km/h (1 Bft)
12.10.2021 04:24 6,8 C 3,9 C 11,7 C 90 % 1019,9 hPa 0,0 l/m 2,0 km/h (1 Bft) W-NW 293 0 min 0,0 UV-I 0 W/m 5,3 C 6,8 C 4,8 km/h (1 Bft)
12.10.2021 04:26 6,8 C 3,9 C 11,7 C 90 % 1019,9 hPa 0,0 l/m 3,7 km/h (1 Bft) W-NW 290 0 min 0,0 UV-I 0 W/m 5,3 C 6,8 C 6,4 km/h (2 Bft)
12.10.2021 04:28 6,8 C 3,9 C 11,7 C 90 % 1019,9 hPa 0,0 l/m 4,4 km/h (1 Bft) W-NW 300 0 min 0,0 UV-I 0 W/m 5,3 C 6,8 C 8,0 km/h (2 Bft)
12.10.2021 04:30 6,8 C 4,4 C 11,7 C 90 % 1019,9 hPa 0,0 l/m 6,1 km/h (2 Bft) W-NW 294 0 min 0,0 UV-I 0 W/m 5,3 C 5,8 C 8,0 km/h (2 Bft)
12.10.2021 04:32 6,8 C 4,4 C 11,7 C 90 % 1019,9 hPa 0,0 l/m 4,7 km/h (1 Bft) W-NW 294 0 min 0,0 UV-I 0 W/m 5,3 C 6,2 C 8,0 km/h (2 Bft)
12.10.2021 04:34 6,8 C 4,4 C 11,7 C 90 % 1019,9 hPa 0,0 l/m 4,9 km/h (1 Bft) W-NW 303 0 min 0,0 UV-I 0 W/m 5,3 C 6,2 C 9,7 km/h (2 Bft)
12.10.2021 04:36 6,8 C 4,4 C 11,7 C 90 % 1019,8 hPa 0,0 l/m 5,5 km/h (2 Bft) W-NW 289 0 min 0,0 UV-I 0 W/m 5,3 C 6,0 C 8,0 km/h (2 Bft)
12.10.2021 04:38 6,8 C 5,0 C 11,7 C 90 % 1019,8 hPa 0,0 l/m 3,9 km/h (1 Bft) W-NW 290 0 min 0,0 UV-I 0 W/m 5,3 C 6,8 C 6,4 km/h (2 Bft)
12.10.2021 04:40 6,8 C 4,4 C 11,7 C 90 % 1019,8 hPa 0,0 l/m 4,6 km/h (1 Bft) W-NW 287 0 min 0,0 UV-I 0 W/m 5,3 C 6,3 C 8,0 km/h (2 Bft)
12.10.2021 04:42 6,8 C 5,0 C 11,7 C 90 % 1019,8 hPa 0,0 l/m 2,4 km/h (1 Bft) W-NW 282 0 min 0,0 UV-I 0 W/m 5,3 C 6,8 C 6,4 km/h (2 Bft)
12.10.2021 04:44 6,8 C 5,0 C 11,7 C 90 % 1019,8 hPa 0,0 l/m 3,3 km/h (1 Bft) W 273 0 min 0,0 UV-I 0 W/m 5,3 C 6,8 C 4,8 km/h (1 Bft)
12.10.2021 04:46 6,9 C 5,0 C 11,7 C 90 % 1019,7 hPa 0,0 l/m 3,4 km/h (1 Bft) W 275 0 min 0,0 UV-I 0 W/m 5,4 C 6,9 C 8,0 km/h (2 Bft)
12.10.2021 04:48 6,9 C 5,6 C 11,7 C 90 % 1019,7 hPa 0,0 l/m 4,2 km/h (1 Bft) W-NW 286 0 min 0,0 UV-I 0 W/m 5,4 C 6,9 C 6,4 km/h (2 Bft)
12.10.2021 04:50 6,9 C 5,6 C 11,7 C 90 % 1019,7 hPa 0,0 l/m 4,1 km/h (1 Bft) W-NW 292 0 min 0,0 UV-I 0 W/m 5,4 C 6,9 C 6,4 km/h (2 Bft)
12.10.2021 04:52 7,0 C 5,6 C 11,7 C 90 % 1019,7 hPa 0,0 l/m 4,5 km/h (1 Bft) W 278 0 min 0,0 UV-I 0 W/m 5,5 C 7,0 C 6,4 km/h (2 Bft)
12.10.2021 04:54 7,0 C 6,1 C 11,7 C 90 % 1019,6 hPa 0,0 l/m 4,4 km/h (1 Bft) W-NW 296 0 min 0,0 UV-I 0 W/m 5,5 C 7,0 C 8,0 km/h (2 Bft)
12.10.2021 04:56 7,1 C 6,1 C 11,7 C 90 % 1019,6 hPa 0,0 l/m 4,1 km/h (1 Bft) W 275 0 min 0,0 UV-I 0 W/m 5,6 C 7,1 C 6,4 km/h (2 Bft)
12.10.2021 04:58 7,1 C 6,1 C 11,7 C 90 % 1019,6 hPa 0,0 l/m 4,6 km/h (1 Bft) W-NW 292 0 min 0,0 UV-I 0 W/m 5,6 C 6,6 C 8,0 km/h (2 Bft)
12.10.2021 05:00 7,1 C 6,1 C 11,7 C 90 % 1019,6 hPa 0,0 l/m 3,8 km/h (1 Bft) W-NW 298 0 min 0,0 UV-I 0 W/m 5,6 C 7,1 C 8,0 km/h (2 Bft)
12.10.2021 05:02 7,2 C 6,1 C 11,7 C 90 % 1019,6 hPa 0,0 l/m 4,4 km/h (1 Bft) W-SW 252 0 min 0,0 UV-I 0 W/m 5,7 C 7,2 C 6,4 km/h (2 Bft)
12.10.2021 05:04 7,2 C 6,1 C 11,7 C 90 % 1019,6 hPa 0,0 l/m 5,0 km/h (1 Bft) W-NW 283 0 min 0,0 UV-I 0 W/m 5,7 C 6,6 C 8,0 km/h (2 Bft)
12.10.2021 05:06 7,2 C 6,1 C 11,7 C 90 % 1019,5 hPa 0,0 l/m 4,1 km/h (1 Bft) W-SW 246 0 min 0,0 UV-I 0 W/m 5,7 C 7,2 C 6,4 km/h (2 Bft)
12.10.2021 05:08 7,2 C 6,1 C 11,7 C 90 % 1019,5 hPa 0,0 l/m 4,2 km/h (1 Bft) W 260 0 min 0,0 UV-I 0 W/m 5,7 C 7,2 C 8,0 km/h (2 Bft)
12.10.2021 05:10 7,3 C 6,1 C 11,7 C 90 % 1019,4 hPa 0,0 l/m 3,5 km/h (1 Bft) W 267 0 min 0,0 UV-I 0 W/m 5,8 C 7,3 C 6,4 km/h (2 Bft)
12.10.2021 05:12 7,2 C 6,1 C 11,7 C 90 % 1019,4 hPa 0,0 l/m 5,0 km/h (1 Bft) W-NW 283 0 min 0,0 UV-I 0 W/m 5,7 C 6,6 C 9,7 km/h (2 Bft)
12.10.2021 05:14 7,3 C 6,1 C 11,7 C 90 % 1019,3 hPa 0,0 l/m 5,5 km/h (2 Bft) W-NW 296 0 min 0,0 UV-I 0 W/m 5,8 C 6,5 C 9,7 km/h (2 Bft)
12.10.2021 05:16 7,3 C 6,1 C 11,7 C 90 % 1019,3 hPa 0,0 l/m 4,1 km/h (1 Bft) W 260 0 min 0,0 UV-I 0 W/m 5,8 C 7,3 C 9,7 km/h (2 Bft)
12.10.2021 05:18 7,2 C 6,1 C 11,7 C 90 % 1019,3 hPa 0,0 l/m 3,8 km/h (1 Bft) W-NW 296 0 min 0,0 UV-I 0 W/m 5,7 C 7,2 C 6,4 km/h (2 Bft)
12.10.2021 05:20 7,3 C 6,7 C 11,7 C 90 % 1019,5 hPa 0,0 l/m 4,7 km/h (1 Bft) W-NW 292 0 min 0,0 UV-I 0 W/m 5,8 C 6,8 C 8,0 km/h (2 Bft)
12.10.2021 05:22 7,3 C 6,7 C 11,7 C 90 % 1019,4 hPa 0,0 l/m 3,8 km/h (1 Bft) W-NW 294 0 min 0,0 UV-I 0 W/m 5,8 C 7,3 C 8,0 km/h (2 Bft)
12.10.2021 05:24 7,3 C 6,1 C 11,7 C 90 % 1019,3 hPa 0,0 l/m 4,5 km/h (1 Bft) W 278 0 min 0,0 UV-I 0 W/m 5,8 C 7,3 C 8,0 km/h (2 Bft)
12.10.2021 05:26 7,3 C 6,1 C 11,1 C 90 % 1019,2 hPa 0,0 l/m 5,1 km/h (1 Bft) W-NW 283 0 min 0,0 UV-I 0 W/m 5,8 C 6,7 C 9,7 km/h (2 Bft)
12.10.2021 05:28 7,3 C 6,1 C 11,1 C 90 % 1019,1 hPa 0,0 l/m 5,7 km/h (2 Bft) W-NW 292 0 min 0,0 UV-I 0 W/m 5,8 C 6,5 C 8,0 km/h (2 Bft)
12.10.2021 05:30 7,2 C 6,1 C 11,1 C 90 % 1019,2 hPa 0,0 l/m 5,7 km/h (2 Bft) W 281 0 min 0,0 UV-I 0 W/m 5,7 C 6,3 C 8,0 km/h (2 Bft)
12.10.2021 05:32 7,2 C 6,1 C 11,1 C 90 % 1019,1 hPa 0,0 l/m 5,0 km/h (1 Bft) W 277 0 min 0,0 UV-I 0 W/m 5,7 C 6,6 C 11,3 km/h (2 Bft)
12.10.2021 05:34 7,2 C 6,1 C 11,1 C 90 % 1019,1 hPa 0,0 l/m 5,5 km/h (2 Bft) W-NW 289 0 min 0,0 UV-I 0 W/m 5,7 C 6,4 C 9,7 km/h (2 Bft)
12.10.2021 05:36 7,2 C 6,1 C 11,7 C 90 % 1019,0 hPa 0,0 l/m 6,0 km/h (2 Bft) W-NW 288 0 min 0,0 UV-I 0 W/m 5,7 C 6,3 C 9,7 km/h (2 Bft)
12.10.2021 05:38 7,2 C 6,1 C 11,1 C 90 % 1019,0 hPa 0,0 l/m 6,3 km/h (2 Bft) W 273 0 min 0,0 UV-I 0 W/m 5,7 C 6,2 C 9,7 km/h (2 Bft)
12.10.2021 05:40 7,3 C 6,1 C 11,7 C 90 % 1019,0 hPa 0,0 l/m 6,9 km/h (2 Bft) W-NW 292 0 min 0,0 UV-I 0 W/m 5,8 C 6,1 C 9,7 km/h (2 Bft)
12.10.2021 05:42 7,3 C 6,1 C 11,7 C 89 % 1019,0 hPa 0,0 l/m 3,8 km/h (1 Bft) W 281 0 min 0,0 UV-I 0 W/m 5,6 C 7,3 C 9,7 km/h (2 Bft)
12.10.2021 05:44 7,2 C 6,1 C 11,7 C 89 % 1019,0 hPa 0,0 l/m 5,6 km/h (2 Bft) W 259 0 min 0,0 UV-I 0 W/m 5,5 C 6,4 C 8,0 km/h (2 Bft)
12.10.2021 05:46 7,2 C 6,1 C 11,7 C 89 % 1018,9 hPa 0,0 l/m 5,0 km/h (1 Bft) W 280 0 min 0,0 UV-I 0 W/m 5,5 C 6,6 C 9,7 km/h (2 Bft)
12.10.2021 05:48 7,2 C 6,1 C 11,1 C 89 % 1018,9 hPa 0,0 l/m 7,0 km/h (2 Bft) W 277 0 min 0,0 UV-I 0 W/m 5,5 C 6,0 C 11,3 km/h (2 Bft)
12.10.2021 05:50 7,2 C 6,1 C 11,1 C 89 % 1018,9 hPa 0,0 l/m 6,5 km/h (2 Bft) W 260 0 min 0,0 UV-I 0 W/m 5,5 C 6,1 C 11,3 km/h (2 Bft)
12.10.2021 05:52 7,2 C 6,1 C 11,1 C 89 % 1018,9 hPa 0,0 l/m 4,6 km/h (1 Bft) W 271 0 min 0,0 UV-I 0 W/m 5,5 C 6,7 C 9,7 km/h (2 Bft)
12.10.2021 05:54 7,2 C 6,1 C 11,7 C 89 % 1018,8 hPa 0,0 l/m 4,2 km/h (1 Bft) W 267 0 min 0,0 UV-I 0 W/m 5,5 C 7,2 C 8,0 km/h (2 Bft)
12.10.2021 05:56 7,2 C 6,1 C 11,7 C 89 % 1018,9 hPa 0,0 l/m 3,6 km/h (1 Bft) W-SW 249 0 min 0,0 UV-I 0 W/m 5,5 C 7,2 C 6,4 km/h (2 Bft)
12.10.2021 05:58 7,2 C 6,1 C 11,7 C 89 % 1018,8 hPa 0,0 l/m 4,9 km/h (1 Bft) W-NW 285 0 min 0,0 UV-I 0 W/m 5,5 C 6,6 C 8,0 km/h (2 Bft)
12.10.2021 06:00 7,2 C 6,1 C 11,7 C 89 % 1018,8 hPa 0,0 l/m 4,4 km/h (1 Bft) W 269 0 min 0,0 UV-I 0 W/m 5,5 C 7,2 C 8,0 km/h (2 Bft)
12.10.2021 06:02 7,2 C 6,1 C 11,1 C 89 % 1018,8 hPa 0,0 l/m 5,2 km/h (1 Bft) NW 310 0 min 0,0 UV-I 0 W/m 5,5 C 6,5 C 8,0 km/h (2 Bft)
12.10.2021 06:04 7,2 C 6,1 C 11,1 C 89 % 1018,8 hPa 0,0 l/m 4,7 km/h (1 Bft) W-SW 256 0 min 0,0 UV-I 0 W/m 5,5 C 6,7 C 8,0 km/h (2 Bft)
12.10.2021 06:06 7,2 C 6,1 C 11,1 C 88 % 1018,7 hPa 0,0 l/m 5,3 km/h (1 Bft) W 276 0 min 0,0 UV-I 0 W/m 5,3 C 6,5 C 8,0 km/h (2 Bft)
12.10.2021 06:08 7,2 C 6,1 C 11,7 C 88 % 1018,7 hPa 0,0 l/m 3,0 km/h (1 Bft) W 264 0 min 0,0 UV-I 0 W/m 5,3 C 7,2 C 6,4 km/h (2 Bft)
12.10.2021 06:10 7,2 C 6,1 C 11,7 C 88 % 1018,7 hPa 0,0 l/m 3,5 km/h (1 Bft) W 265 0 min 0,0 UV-I 0 W/m 5,3 C 7,2 C 6,4 km/h (2 Bft)
12.10.2021 06:12 7,2 C 6,1 C 11,1 C 88 % 1018,6 hPa 0,0 l/m 4,1 km/h (1 Bft) W-NW 294 0 min 0,0 UV-I 0 W/m 5,3 C 7,2 C 6,4 km/h (2 Bft)
12.10.2021 06:14 7,2 C 6,1 C 11,7 C 88 % 1018,6 hPa 0,0 l/m 5,1 km/h (1 Bft) W 259 0 min 0,0 UV-I 0 W/m 5,3 C 6,5 C 9,7 km/h (2 Bft)
12.10.2021 06:16 7,1 C 6,1 C 11,1 C 88 % 1018,5 hPa 0,0 l/m 6,8 km/h (2 Bft) W-SW 248 0 min 0,0 UV-I 0 W/m 5,2 C 5,9 C 11,3 km/h (2 Bft)
12.10.2021 06:18 7,1 C 6,1 C 11,1 C 88 % 1018,5 hPa 0,0 l/m 5,8 km/h (2 Bft) NW 305 0 min 0,0 UV-I 0 W/m 5,2 C 6,2 C 9,7 km/h (2 Bft)
12.10.2021 06:20 7,2 C 6,1 C 11,7 C 88 % 1018,5 hPa 0,0 l/m 5,6 km/h (2 Bft) W 277 0 min 0,0 UV-I 0 W/m 5,3 C 6,4 C 11,3 km/h (2 Bft)
12.10.2021 06:22 7,1 C 5,6 C 11,1 C 88 % 1018,5 hPa 0,0 l/m 5,3 km/h (1 Bft) W-NW 293 0 min 0,0 UV-I 0 W/m 5,2 C 6,4 C 11,3 km/h (2 Bft)
12.10.2021 06:24 7,1 C 5,6 C 11,1 C 88 % 1018,5 hPa 0,0 l/m 5,8 km/h (2 Bft) W-SW 252 0 min 0,0 UV-I 0 W/m 5,2 C 6,2 C 8,0 km/h (2 Bft)
12.10.2021 06:26 7,1 C 5,6 C 11,1 C 88 % 1018,4 hPa 0,0 l/m 6,0 km/h (2 Bft) W-SW 244 0 min 0,0 UV-I 0 W/m 5,2 C 6,1 C 12,9 km/h (3 Bft)
12.10.2021 06:28 7,1 C 5,6 C 11,7 C 88 % 1018,4 hPa 0,0 l/m 5,4 km/h (2 Bft) W-SW 258 0 min 0,0 UV-I 0 W/m 5,2 C 6,3 C 9,7 km/h (2 Bft)
12.10.2021 06:30 7,1 C 5,6 C 11,7 C 88 % 1018,3 hPa 0,0 l/m 6,6 km/h (2 Bft) W 267 0 min 0,0 UV-I 0 W/m 5,2 C 6,0 C 9,7 km/h (2 Bft)
12.10.2021 06:32 7,1 C 6,1 C 11,1 C 88 % 1018,3 hPa 0,0 l/m 6,3 km/h (2 Bft) W-NW 286 0 min 0,0 UV-I 0 W/m 5,2 C 6,0 C 11,3 km/h (2 Bft)
12.10.2021 06:34 7,1 C 5,6 C 11,7 C 88 % 1018,3 hPa 0,0 l/m 6,7 km/h (2 Bft) W 280 0 min 0,0 UV-I 0 W/m 5,2 C 5,9 C 11,3 km/h (2 Bft)
12.10.2021 06:36 7,1 C 5,6 C 11,7 C 88 % 1018,3 hPa 0,0 l/m 5,3 km/h (1 Bft) W-SW 242 0 min 0,0 UV-I 0 W/m 5,2 C 6,4 C 12,9 km/h (3 Bft)
12.10.2021 06:38 7,1 C 6,1 C 11,1 C 87 % 1018,3 hPa 0,0 l/m 3,6 km/h (1 Bft) W 269 0 min 0,0 UV-I 0 W/m 5,1 C 7,1 C 6,4 km/h (2 Bft)
12.10.2021 06:40 7,1 C 6,1 C 11,1 C 87 % 1018,3 hPa 0,0 l/m 6,5 km/h (2 Bft) W-NW 290 0 min 0,0 UV-I 0 W/m 5,1 C 6,0 C 9,7 km/h (2 Bft)
12.10.2021 06:42 7,1 C 5,6 C 11,7 C 87 % 1018,2 hPa 0,0 l/m 5,2 km/h (1 Bft) W 269 0 min 0,0 UV-I 0 W/m 5,1 C 6,4 C 9,7 km/h (2 Bft)
12.10.2021 06:44 7,1 C 5,6 C 11,1 C 87 % 1018,2 hPa 0,0 l/m 6,2 km/h (2 Bft) W 260 0 min 0,0 UV-I 0 W/m 5,1 C 6,1 C 12,9 km/h (3 Bft)
12.10.2021 06:46 7,1 C 5,6 C 11,1 C 87 % 1018,3 hPa 0,0 l/m 3,8 km/h (1 Bft) W 262 0 min 0,0 UV-I 0 W/m 5,1 C 7,1 C 8,0 km/h (2 Bft)
12.10.2021 06:48 7,1 C 5,6 C 11,7 C 87 % 1018,2 hPa 0,0 l/m 6,0 km/h (2 Bft) W 273 0 min 0,0 UV-I 0 W/m 5,1 C 6,1 C 11,3 km/h (2 Bft)
12.10.2021 06:50 7,1 C 5,6 C 11,1 C 87 % 1018,3 hPa 0,0 l/m 6,4 km/h (2 Bft) W 266 0 min 0,0 UV-I 0 W/m 5,1 C 6,0 C 11,3 km/h (2 Bft)
12.10.2021 06:52 7,1 C 5,6 C 11,1 C 87 % 1018,2 hPa 0,0 l/m 5,7 km/h (2 Bft) W-NW 282 0 min 0,0 UV-I 0 W/m 5,1 C 6,2 C 11,3 km/h (2 Bft)
12.10.2021 06:54 7,1 C 5,6 C 11,1 C 87 % 1018,2 hPa 0,0 l/m 7,0 km/h (2 Bft) W-NW 297 0 min 0,0 UV-I 0 W/m 5,1 C 5,9 C 12,9 km/h (3 Bft)
12.10.2021 06:56 7,1 C 5,6 C 11,1 C 87 % 1018,2 hPa 0,0 l/m 7,8 km/h (2 Bft) W 276 0 min 0,0 UV-I 0 W/m 5,1 C 5,6 C 14,5 km/h (3 Bft)
12.10.2021 06:58 7,1 C 5,6 C 11,1 C 87 % 1018,2 hPa 0,0 l/m 6,9 km/h (2 Bft) NW 308 0 min 0,0 UV-I 0 W/m 5,1 C 5,9 C 11,3 km/h (2 Bft)
12.10.2021 07:00 7,0 C 5,6 C 11,1 C 86 % 1018,1 hPa 0,0 l/m 6,9 km/h (2 Bft) W-NW 287 0 min 0,0 UV-I 0 W/m 4,8 C 5,8 C 12,9 km/h (3 Bft)
12.10.2021 07:02 7,1 C 5,6 C 11,1 C 86 % 1018,1 hPa 0,0 l/m 8,3 km/h (2 Bft) W-NW 302 0 min 0,0 UV-I 0 W/m 4,9 C 5,5 C 16,1 km/h (3 Bft)
12.10.2021 07:04 7,1 C 5,6 C 11,1 C 86 % 1018,0 hPa 0,0 l/m 5,3 km/h (1 Bft) W 279 0 min 0,0 UV-I 0 W/m 4,9 C 6,4 C 11,3 km/h (2 Bft)
12.10.2021 07:06 7,1 C 5,6 C 11,7 C 86 % 1018,0 hPa 0,0 l/m 5,3 km/h (1 Bft) W 277 0 min 0,0 UV-I 0 W/m 4,9 C 6,4 C 11,3 km/h (2 Bft)
12.10.2021 07:08 7,0 C 5,6 C 11,7 C 86 % 1017,8 hPa 0,0 l/m 6,3 km/h (2 Bft) W-NW 283 0 min 0,0 UV-I 0 W/m 4,8 C 5,9 C 11,3 km/h (2 Bft)
12.10.2021 07:10 7,1 C 5,6 C 11,1 C 86 % 1017,8 hPa 0,0 l/m 8,2 km/h (2 Bft) W-SW 240 0 min 0,0 UV-I 0 W/m 4,9 C 5,6 C 14,5 km/h (3 Bft)
12.10.2021 07:12 7,0 C 5,6 C 11,1 C 86 % 1017,8 hPa 0,0 l/m 8,0 km/h (2 Bft) W-SW 250 0 min 0,0 UV-I 0 W/m 4,8 C 5,5 C 12,9 km/h (3 Bft)
12.10.2021 07:14 7,0 C 5,6 C 11,1 C 86 % 1017,6 hPa 0,0 l/m 6,5 km/h (2 Bft) W-NW 287 0 min 0,0 UV-I 0 W/m 4,8 C 5,9 C 16,1 km/h (3 Bft)
12.10.2021 07:16 7,1 C 5,6 C 11,7 C 86 % 1017,6 hPa 0,0 l/m 6,4 km/h (2 Bft) W 262 0 min 0,0 UV-I 0 W/m 4,9 C 6,0 C 11,3 km/h (2 Bft)
12.10.2021 07:18 7,0 C 5,6 C 11,1 C 86 % 1017,7 hPa 0,0 l/m 6,5 km/h (2 Bft) W 272 0 min 0,0 UV-I 0 W/m 4,8 C 5,9 C 12,9 km/h (3 Bft)
12.10.2021 07:20 7,0 C 5,6 C 11,1 C 86 % 1017,6 hPa 0,0 l/m 6,0 km/h (2 Bft) W-SW 253 0 min 0,0 UV-I 0 W/m 4,8 C 6,0 C 11,3 km/h (2 Bft)
12.10.2021 07:22 7,0 C 5,6 C 11,1 C 86 % 1017,6 hPa 0,0 l/m 6,7 km/h (2 Bft) W-SW 251 0 min 0,0 UV-I 0 W/m 4,8 C 5,8 C 11,3 km/h (2 Bft)
12.10.2021 07:24 7,0 C 5,6 C 11,1 C 86 % 1017,6 hPa 0,0 l/m 6,5 km/h (2 Bft) W-NW 286 0 min 0,0 UV-I 0 W/m 4,8 C 5,9 C 12,9 km/h (3 Bft)
12.10.2021 07:26 7,0 C 5,6 C 11,1 C 86 % 1017,6 hPa 0,0 l/m 5,6 km/h (2 Bft) W 259 0 min 0,0 UV-I 5 W/m 4,8 C 6,1 C 9,7 km/h (2 Bft)
12.10.2021 07:28 7,1 C 5,6 C 11,1 C 86 % 1017,6 hPa 0,0 l/m 7,1 km/h (2 Bft) W 262 0 min 0,0 UV-I 5 W/m 4,9 C 5,8 C 11,3 km/h (2 Bft)
12.10.2021 07:30 7,1 C 5,6 C 11,7 C 86 % 1017,6 hPa 0,0 l/m 5,8 km/h (2 Bft) W 261 0 min 0,0 UV-I 5 W/m 4,9 C 6,2 C 11,3 km/h (2 Bft)
12.10.2021 07:32 7,1 C 6,1 C 11,1 C 86 % 1017,6 hPa 0,0 l/m 5,0 km/h (1 Bft) W 265 0 min 0,0 UV-I 7 W/m 4,9 C 6,5 C 11,3 km/h (2 Bft)
12.10.2021 07:34 7,1 C 6,1 C 11,7 C 86 % 1017,6 hPa 0,0 l/m 4,5 km/h (1 Bft) W-SW 243 0 min 0,0 UV-I 7 W/m 4,9 C 7,1 C 8,0 km/h (2 Bft)
12.10.2021 07:36 7,1 C 6,1 C 11,7 C 86 % 1017,6 hPa 0,0 l/m 7,7 km/h (2 Bft) W-NW 299 0 min 0,0 UV-I 9 W/m 4,9 C 5,7 C 11,3 km/h (2 Bft)
12.10.2021 07:38 7,1 C 6,1 C 11,7 C 87 % 1017,5 hPa 0,0 l/m 4,1 km/h (1 Bft) W-SW 256 0 min 0,0 UV-I 9 W/m 5,1 C 7,1 C 11,3 km/h (2 Bft)
12.10.2021 07:40 7,1 C 6,1 C 11,7 C 87 % 1017,6 hPa 0,0 l/m 6,6 km/h (2 Bft) W 271 0 min 0,0 UV-I 12 W/m 5,1 C 6,0 C 9,7 km/h (2 Bft)
12.10.2021 07:42 7,1 C 6,1 C 11,1 C 86 % 1017,5 hPa 0,0 l/m 5,2 km/h (1 Bft) W-SW 254 2 min 0,0 UV-I 12 W/m 4,9 C 6,4 C 11,3 km/h (2 Bft)
12.10.2021 07:44 7,2 C 6,1 C 11,1 C 87 % 1017,5 hPa 0,0 l/m 7,3 km/h (2 Bft) W 273 2 min 0,0 UV-I 12 W/m 5,2 C 5,9 C 11,3 km/h (2 Bft)
12.10.2021 07:46 7,2 C 6,1 C 11,7 C 87 % 1017,5 hPa 0,0 l/m 6,7 km/h (2 Bft) W-SW 255 2 min 0,0 UV-I 16 W/m 5,2 C 6,1 C 11,3 km/h (2 Bft)
12.10.2021 07:48 7,2 C 6,1 C 11,1 C 87 % 1017,5 hPa 0,0 l/m 6,4 km/h (2 Bft) W 269 0 min 0,0 UV-I 16 W/m 5,2 C 6,1 C 12,9 km/h (3 Bft)
12.10.2021 07:50 7,3 C 6,1 C 11,1 C 87 % 1017,4 hPa 0,0 l/m 6,4 km/h (2 Bft) W-NW 285 0 min 0,0 UV-I 16 W/m 5,3 C 6,3 C 9,7 km/h (2 Bft)
12.10.2021 07:52 7,3 C 6,1 C 11,1 C 87 % 1017,5 hPa 0,0 l/m 4,8 km/h (1 Bft) W-NW 282 0 min 0,0 UV-I 16 W/m 5,3 C 6,8 C 9,7 km/h (2 Bft)
12.10.2021 07:54 7,4 C 6,1 C 11,7 C 87 % 1017,4 hPa 0,0 l/m 6,1 km/h (2 Bft) NW 324 0 min 0,0 UV-I 14 W/m 5,4 C 6,5 C 11,3 km/h (2 Bft)
12.10.2021 07:56 7,4 C 6,7 C 11,1 C 87 % 1017,4 hPa 0,0 l/m 7,3 km/h (2 Bft) W 274 0 min 0,0 UV-I 14 W/m 5,4 C 6,1 C 11,3 km/h (2 Bft)
12.10.2021 07:58 7,5 C 6,7 C 11,1 C 87 % 1017,4 hPa 0,0 l/m 7,5 km/h (2 Bft) W-NW 287 0 min 0,0 UV-I 16 W/m 5,5 C 6,2 C 12,9 km/h (3 Bft)
12.10.2021 08:00 7,5 C 6,7 C 11,1 C 87 % 1017,4 hPa 0,0 l/m 5,5 km/h (2 Bft) W 274 0 min 0,0 UV-I 16 W/m 5,5 C 6,8 C 9,7 km/h (2 Bft)
12.10.2021 08:02 7,6 C 6,7 C 11,1 C 87 % 1017,4 hPa 0,0 l/m 7,2 km/h (2 Bft) NW 312 0 min 0,0 UV-I 18 W/m 5,6 C 6,4 C 12,9 km/h (3 Bft)
12.10.2021 08:04 7,6 C 6,7 C 11,1 C 87 % 1017,4 hPa 0,0 l/m 4,9 km/h (1 Bft) W 279 0 min 0,0 UV-I 19 W/m 5,6 C 7,1 C 11,3 km/h (2 Bft)
12.10.2021 08:06 7,6 C 6,7 C 11,1 C 87 % 1017,5 hPa 0,0 l/m 7,1 km/h (2 Bft) W-NW 288 0 min 0,0 UV-I 21 W/m 5,6 C 6,4 C 12,9 km/h (3 Bft)
12.10.2021 08:08 7,7 C 6,7 C 11,1 C 86 % 1017,5 hPa 0,0 l/m 6,9 km/h (2 Bft) W-NW 287 0 min 0,0 UV-I 23 W/m 5,5 C 6,6 C 12,9 km/h (3 Bft)
12.10.2021 08:10 7,7 C 6,7 C 11,1 C 86 % 1017,6 hPa 0,0 l/m 5,6 km/h (2 Bft) W-SW 250 0 min 0,0 UV-I 21 W/m 5,5 C 6,9 C 11,3 km/h (2 Bft)
12.10.2021 08:12 7,7 C 6,7 C 11,1 C 86 % 1017,6 hPa 0,0 l/m 5,5 km/h (2 Bft) W-NW 301 0 min 0,0 UV-I 18 W/m 5,5 C 7,0 C 9,7 km/h (2 Bft)
12.10.2021 08:14 7,8 C 7,2 C 11,1 C 86 % 1017,6 hPa 0,0 l/m 5,7 km/h (2 Bft) W-NW 288 0 min 0,0 UV-I 16 W/m 5,6 C 7,0 C 9,7 km/h (2 Bft)
12.10.2021 08:16 7,8 C 7,2 C 11,1 C 86 % 1017,6 hPa 0,0 l/m 4,8 km/h (1 Bft) W-NW 297 0 min 0,0 UV-I 14 W/m 5,6 C 7,3 C 11,3 km/h (2 Bft)
12.10.2021 08:18 7,8 C 7,2 C 11,1 C 86 % 1017,6 hPa 0,0 l/m 4,0 km/h (1 Bft) W-NW 284 0 min 0,0 UV-I 14 W/m 5,6 C 7,8 C 6,4 km/h (2 Bft)
12.10.2021 08:20 7,8 C 7,2 C 11,1 C 86 % 1017,7 hPa 0,2 l/m 5,9 km/h (2 Bft) W 279 0 min 0,0 UV-I 14 W/m 5,6 C 7,0 C 11,3 km/h (2 Bft)
12.10.2021 08:22 7,9 C 6,7 C 11,1 C 86 % 1017,7 hPa 0,2 l/m 4,6 km/h (1 Bft) W-NW 296 0 min 0,0 UV-I 11 W/m 5,7 C 7,5 C 8,0 km/h (2 Bft)
12.10.2021 08:24 7,9 C 7,2 C 11,1 C 86 % 1017,7 hPa 0,0 l/m 5,3 km/h (1 Bft) W-NW 296 0 min 0,0 UV-I 14 W/m 5,7 C 7,3 C 9,7 km/h (2 Bft)
12.10.2021 08:26 7,9 C 7,2 C 11,1 C 86 % 1017,7 hPa 0,2 l/m 6,2 km/h (2 Bft) NW 309 0 min 0,0 UV-I 14 W/m 5,7 C 7,0 C 9,7 km/h (2 Bft)
12.10.2021 08:28 7,9 C 7,2 C 11,1 C 86 % 1017,8 hPa 0,0 l/m 3,8 km/h (1 Bft) N-NW 348 0 min 0,0 UV-I 12 W/m 5,7 C 7,9 C 6,4 km/h (2 Bft)
12.10.2021 08:30 7,8 C 7,2 C 11,1 C 86 % 1017,7 hPa 0,2 l/m 5,0 km/h (1 Bft) W 275 0 min 0,0 UV-I 12 W/m 5,6 C 7,3 C 9,7 km/h (2 Bft)
12.10.2021 08:32 7,8 C 7,2 C 11,1 C 87 % 1017,8 hPa 0,0 l/m 4,5 km/h (1 Bft) N-NW 329 0 min 0,0 UV-I 14 W/m 5,8 C 7,8 C 6,4 km/h (2 Bft)
12.10.2021 08:34 7,8 C 7,2 C 11,1 C 87 % 1017,8 hPa 0,2 l/m 4,7 km/h (1 Bft) W-NW 296 0 min 0,0 UV-I 16 W/m 5,8 C 7,4 C 6,4 km/h (2 Bft)
12.10.2021 08:36 7,8 C 7,2 C 11,1 C 87 % 1017,7 hPa 0,0 l/m 3,2 km/h (1 Bft) W 280 0 min 0,0 UV-I 16 W/m 5,8 C 7,8 C 6,4 km/h (2 Bft)
12.10.2021 08:38 7,8 C 7,2 C 11,1 C 87 % 1017,8 hPa 0,2 l/m 3,8 km/h (1 Bft) W-NW 303 0 min 0,0 UV-I 14 W/m 5,8 C 7,8 C 6,4 km/h (2 Bft)
12.10.2021 08:40 7,8 C 7,2 C 11,1 C 87 % 1017,8 hPa 0,2 l/m 4,0 km/h (1 Bft) NW 304 0 min 0,0 UV-I 14 W/m 5,8 C 7,8 C 4,8 km/h (1 Bft)
12.10.2021 08:42 7,8 C 7,2 C 11,1 C 87 % 1017,8 hPa 0,0 l/m 4,2 km/h (1 Bft) W-NW 297 0 min 0,0 UV-I 14 W/m 5,8 C 7,8 C 6,4 km/h (2 Bft)
12.10.2021 08:44 7,8 C 7,2 C 11,1 C 88 % 1017,8 hPa 0,2 l/m 4,4 km/h (1 Bft) W-NW 301 0 min 0,0 UV-I 16 W/m 5,9 C 7,8 C 8,0 km/h (2 Bft)
12.10.2021 08:46 7,8 C 7,2 C 11,1 C 88 % 1017,7 hPa 0,0 l/m 4,4 km/h (1 Bft) W 277 0 min 0,0 UV-I 21 W/m 5,9 C 7,8 C 6,4 km/h (2 Bft)
12.10.2021 08:48 7,8 C 7,2 C 11,1 C 88 % 1017,7 hPa 0,2 l/m 3,0 km/h (1 Bft) W 260 0 min 0,0 UV-I 23 W/m 5,9 C 7,8 C 6,4 km/h (2 Bft)
12.10.2021 08:50 7,8 C 7,2 C 11,1 C 88 % 1017,7 hPa 0,0 l/m 5,2 km/h (1 Bft) W-NW 288 0 min 0,0 UV-I 25 W/m 5,9 C 7,2 C 8,0 km/h (2 Bft)
12.10.2021 08:52 7,8 C 7,2 C 11,1 C 88 % 1017,7 hPa 0,0 l/m 4,8 km/h (1 Bft) W 271 0 min 0,0 UV-I 26 W/m 5,9 C 7,3 C 8,0 km/h (2 Bft)
12.10.2021 08:54 7,8 C 7,2 C 11,1 C 88 % 1017,7 hPa 0,2 l/m 2,3 km/h (1 Bft) NW 311 0 min 0,0 UV-I 26 W/m 5,9 C 7,8 C 4,8 km/h (1 Bft)
12.10.2021 08:56 7,8 C 7,2 C 11,1 C 88 % 1017,7 hPa 0,0 l/m 4,0 km/h (1 Bft) W-NW 282 0 min 0,0 UV-I 25 W/m 5,9 C 7,8 C 6,4 km/h (2 Bft)
12.10.2021 08:58 7,8 C 7,2 C 11,1 C 88 % 1017,6 hPa 0,0 l/m 4,4 km/h (1 Bft) NW 317 0 min 0,0 UV-I 23 W/m 5,9 C 7,8 C 6,4 km/h (2 Bft)
12.10.2021 09:00 7,8 C 7,2 C 11,1 C 88 % 1017,6 hPa 0,0 l/m 4,0 km/h (1 Bft) W-NW 300 0 min 0,0 UV-I 23 W/m 5,9 C 7,8 C 8,0 km/h (2 Bft)
12.10.2021 09:02 7,8 C 7,2 C 11,1 C 88 % 1017,6 hPa 0,0 l/m 4,3 km/h (1 Bft) W 279 0 min 0,0 UV-I 30 W/m 5,9 C 7,8 C 9,7 km/h (2 Bft)
12.10.2021 09:04 7,9 C 7,2 C 11,1 C 88 % 1017,6 hPa 0,0 l/m 4,5 km/h (1 Bft) NW 306 0 min 0,0 UV-I 39 W/m 6,0 C 7,9 C 9,7 km/h (2 Bft)
12.10.2021 09:06 7,9 C 7,8 C 11,1 C 88 % 1017,5 hPa 0,2 l/m 4,6 km/h (1 Bft) NW 312 0 min 0,0 UV-I 37 W/m 6,0 C 7,5 C 9,7 km/h (2 Bft)
12.10.2021 09:08 7,9 C 7,2 C 11,1 C 89 % 1017,5 hPa 0,0 l/m 7,0 km/h (2 Bft) W-NW 287 0 min 0,0 UV-I 21 W/m 6,2 C 6,8 C 11,3 km/h (2 Bft)
12.10.2021 09:10 7,9 C 7,2 C 11,1 C 89 % 1017,4 hPa 0,0 l/m 6,7 km/h (2 Bft) W-NW 283 0 min 0,0 UV-I 16 W/m 6,2 C 6,9 C 12,9 km/h (3 Bft)
12.10.2021 09:12 7,9 C 7,2 C 11,1 C 89 % 1017,4 hPa 0,0 l/m 5,9 km/h (2 Bft) W-NW 284 0 min 0,0 UV-I 16 W/m 6,2 C 7,1 C 9,7 km/h (2 Bft)
12.10.2021 09:14 7,9 C 7,2 C 11,1 C 89 % 1017,5 hPa 0,0 l/m 4,9 km/h (1 Bft) NW 313 0 min 0,0 UV-I 21 W/m 6,2 C 7,4 C 8,0 km/h (2 Bft)
12.10.2021 09:16 8,0 C 7,2 C 11,1 C 89 % 1017,4 hPa 0,2 l/m 4,7 km/h (1 Bft) W-NW 302 0 min 0,0 UV-I 26 W/m 6,3 C 7,6 C 9,7 km/h (2 Bft)
12.10.2021 09:18 8,0 C 7,8 C 11,1 C 89 % 1017,4 hPa 0,0 l/m 3,8 km/h (1 Bft) W-NW 286 0 min 0,0 UV-I 32 W/m 6,3 C 8,0 C 6,4 km/h (2 Bft)
12.10.2021 09:20 8,0 C 7,8 C 11,1 C 89 % 1017,4 hPa 0,2 l/m 3,8 km/h (1 Bft) NW 310 0 min 0,0 UV-I 35 W/m 6,3 C 8,0 C 6,4 km/h (2 Bft)
12.10.2021 09:22 8,0 C 7,8 C 11,1 C 89 % 1017,4 hPa 0,0 l/m 4,9 km/h (1 Bft) W-NW 292 0 min 0,0 UV-I 37 W/m 6,3 C 7,5 C 11,3 km/h (2 Bft)
12.10.2021 09:24 8,0 C 7,8 C 11,1 C 89 % 1017,3 hPa 0,2 l/m 4,4 km/h (1 Bft) W-SW 250 0 min 0,0 UV-I 37 W/m 6,3 C 8,0 C 11,3 km/h (2 Bft)
12.10.2021 09:26 8,1 C 7,8 C 11,1 C 89 % 1017,3 hPa 0,0 l/m 6,0 km/h (2 Bft) W-NW 285 0 min 0,0 UV-I 40 W/m 6,4 C 7,3 C 9,7 km/h (2 Bft)
12.10.2021 09:28 8,1 C 7,8 C 11,1 C 89 % 1017,3 hPa 0,0 l/m 6,6 km/h (2 Bft) W-NW 295 0 min 0,0 UV-I 39 W/m 6,4 C 7,1 C 11,3 km/h (2 Bft)
12.10.2021 09:30 8,1 C 7,8 C 11,1 C 89 % 1017,3 hPa 0,2 l/m 7,6 km/h (2 Bft) W 277 0 min 0,0 UV-I 42 W/m 6,4 C 6,9 C 12,9 km/h (3 Bft)
12.10.2021 09:32 8,1 C 7,8 C 11,1 C 89 % 1017,3 hPa 0,0 l/m 8,6 km/h (2 Bft) W-SW 257 0 min 0,0 UV-I 44 W/m 6,4 C 6,6 C 12,9 km/h (3 Bft)
12.10.2021 09:34 8,2 C 7,8 C 11,1 C 89 % 1017,4 hPa 0,0 l/m 9,6 km/h (2 Bft) W 271 0 min 0,0 UV-I 40 W/m 6,5 C 6,6 C 16,1 km/h (3 Bft)
12.10.2021 09:36 8,2 C 7,8 C 11,1 C 89 % 1017,4 hPa 0,0 l/m 6,9 km/h (2 Bft) W 278 0 min 0,0 UV-I 40 W/m 6,5 C 7,2 C 11,3 km/h (2 Bft)
12.10.2021 09:38 8,2 C 7,8 C 11,1 C 89 % 1017,3 hPa 0,0 l/m 5,6 km/h (2 Bft) W 276 0 min 0,5 UV-I 69 W/m 6,5 C 7,5 C 11,3 km/h (2 Bft)
12.10.2021 09:40 8,2 C 8,3 C 11,1 C 89 % 1017,2 hPa 0,0 l/m 5,6 km/h (2 Bft) NW 305 0 min 0,5 UV-I 86 W/m 6,5 C 7,5 C 9,7 km/h (2 Bft)
12.10.2021 09:42 8,2 C 8,3 C 11,1 C 89 % 1017,2 hPa 0,0 l/m 6,7 km/h (2 Bft) W 281 0 min 0,5 UV-I 88 W/m 6,5 C 7,2 C 9,7 km/h (2 Bft)
12.10.2021 09:44 8,3 C 8,3 C 11,1 C 89 % 1017,2 hPa 0,0 l/m 4,9 km/h (1 Bft) W-NW 287 0 min 0,5 UV-I 72 W/m 6,6 C 7,9 C 8,0 km/h (2 Bft)
12.10.2021 09:46 8,3 C 8,3 C 11,1 C 89 % 1017,2 hPa 0,0 l/m 3,1 km/h (1 Bft) NW 305 0 min 0,5 UV-I 65 W/m 6,6 C 8,3 C 9,7 km/h (2 Bft)
12.10.2021 09:48 8,4 C 8,3 C 11,1 C 89 % 1017,2 hPa 0,0 l/m 4,9 km/h (1 Bft) NW 306 0 min 0,0 UV-I 60 W/m 6,7 C 8,0 C 8,0 km/h (2 Bft)
12.10.2021 09:50 8,4 C 8,3 C 11,1 C 89 % 1017,1 hPa 0,0 l/m 8,2 km/h (2 Bft) W 280 0 min 0,0 UV-I 51 W/m 6,7 C 7,1 C 14,5 km/h (3 Bft)
12.10.2021 09:52 8,4 C 8,3 C 11,1 C 89 % 1017,1 hPa 0,0 l/m 7,1 km/h (2 Bft) W-NW 283 0 min 0,0 UV-I 49 W/m 6,7 C 7,3 C 11,3 km/h (2 Bft)
12.10.2021 09:54 8,4 C 8,3 C 11,1 C 89 % 1017,1 hPa 0,0 l/m 4,3 km/h (1 Bft) W-NW 298 0 min 0,0 UV-I 53 W/m 6,7 C 8,4 C 8,0 km/h (2 Bft)
12.10.2021 09:56 8,4 C 8,3 C 11,1 C 89 % 1017,0 hPa 0,2 l/m 5,5 km/h (2 Bft) W 276 0 min 0,5 UV-I 58 W/m 6,7 C 7,8 C 12,9 km/h (3 Bft)
12.10.2021 09:58 8,4 C 8,3 C 11,1 C 89 % 1017,0 hPa 0,0 l/m 7,8 km/h (2 Bft) W 269 0 min 0,5 UV-I 58 W/m 6,7 C 7,2 C 16,1 km/h (3 Bft)
12.10.2021 10:00 8,4 C 8,3 C 11,1 C 89 % 1017,0 hPa 0,0 l/m 8,1 km/h (2 Bft) W-NW 292 0 min 0,5 UV-I 63 W/m 6,7 C 7,1 C 12,9 km/h (3 Bft)
12.10.2021 10:02 8,4 C 8,3 C 11,1 C 89 % 1017,0 hPa 0,2 l/m 10,3 km/h (2 Bft) W 277 0 min 0,6 UV-I 86 W/m 6,7 C 6,7 C 17,7 km/h (3 Bft)
12.10.2021 10:04 8,4 C 8,3 C 11,1 C 89 % 1016,9 hPa 0,0 l/m 7,6 km/h (2 Bft) W-NW 286 0 min 0,6 UV-I 97 W/m 6,7 C 7,2 C 12,9 km/h (3 Bft)
12.10.2021 10:06 8,5 C 8,3 C 11,1 C 89 % 1016,9 hPa 0,0 l/m 5,6 km/h (2 Bft) W 278 0 min 0,6 UV-I 97 W/m 6,8 C 7,9 C 11,3 km/h (2 Bft)
12.10.2021 10:08 8,6 C 8,9 C 11,1 C 89 % 1016,9 hPa 0,0 l/m 5,3 km/h (1 Bft) N-NW 329 0 min 0,6 UV-I 95 W/m 6,9 C 8,1 C 9,7 km/h (2 Bft)
12.10.2021 10:10 8,6 C 8,9 C 11,1 C 90 % 1017,0 hPa 0,0 l/m 6,1 km/h (2 Bft) NW 304 0 min 0,6 UV-I 83 W/m 7,1 C 7,8 C 11,3 km/h (2 Bft)
12.10.2021 10:12 8,6 C 8,3 C 11,1 C 90 % 1016,9 hPa 0,0 l/m 5,2 km/h (1 Bft) W-NW 283 0 min 0,6 UV-I 63 W/m 7,1 C 8,1 C 9,7 km/h (2 Bft)
12.10.2021 10:14 8,6 C 8,3 C 11,1 C 90 % 1017,0 hPa 0,0 l/m 5,7 km/h (2 Bft) W 268 0 min 0,5 UV-I 63 W/m 7,1 C 7,9 C 9,7 km/h (2 Bft)
12.10.2021 10:16 8,6 C 8,9 C 11,1 C 90 % 1017,0 hPa 0,0 l/m 3,7 km/h (1 Bft) NW 306 0 min 0,6 UV-I 76 W/m 7,1 C 8,6 C 8,0 km/h (2 Bft)
12.10.2021 10:18 8,7 C 8,9 C 11,1 C 90 % 1017,0 hPa 0,2 l/m 5,1 km/h (1 Bft) NW 317 0 min 0,6 UV-I 86 W/m 7,2 C 8,2 C 8,0 km/h (2 Bft)
12.10.2021 10:20 8,7 C 8,9 C 11,1 C 90 % 1016,9 hPa 0,0 l/m 4,3 km/h (1 Bft) W-NW 300 0 min 0,6 UV-I 74 W/m 7,2 C 8,7 C 8,0 km/h (2 Bft)
12.10.2021 10:22 8,7 C 8,9 C 11,1 C 90 % 1017,0 hPa 0,0 l/m 7,2 km/h (2 Bft) W-SW 250 0 min 0,6 UV-I 67 W/m 7,2 C 7,7 C 11,3 km/h (2 Bft)
12.10.2021 10:24 8,6 C 8,3 C 11,1 C 90 % 1017,0 hPa 0,0 l/m 6,8 km/h (2 Bft) W-SW 256 0 min 0,5 UV-I 58 W/m 7,1 C 7,6 C 12,9 km/h (3 Bft)
12.10.2021 10:26 8,6 C 8,3 C 11,1 C 90 % 1017,0 hPa 0,0 l/m 3,6 km/h (1 Bft) NW 317 0 min 0,5 UV-I 58 W/m 7,1 C 8,6 C 9,7 km/h (2 Bft)
12.10.2021 10:28 8,7 C 8,3 C 11,1 C 90 % 1016,9 hPa 0,0 l/m 4,5 km/h (1 Bft) NW 304 0 min 0,5 UV-I 60 W/m 7,2 C 8,7 C 8,0 km/h (2 Bft)
12.10.2021 10:30 8,7 C 8,9 C 11,1 C 90 % 1017,0 hPa 0,0 l/m 6,0 km/h (2 Bft) W-SW 246 0 min 0,6 UV-I 128 W/m 7,2 C 8,0 C 9,7 km/h (2 Bft)
12.10.2021 10:32 8,7 C 9,4 C 11,1 C 90 % 1016,9 hPa 0,0 l/m 1,4 km/h (1 Bft) N-NW 335 0 min 0,7 UV-I 162 W/m 7,2 C 8,7 C 6,4 km/h (2 Bft)
12.10.2021 10:34 8,7 C 9,4 C 11,7 C 90 % 1016,9 hPa 0,0 l/m 3,9 km/h (1 Bft) W-NW 292 0 min 0,5 UV-I 111 W/m 7,2 C 8,7 C 8,0 km/h (2 Bft)
12.10.2021 10:36 8,8 C 9,4 C 11,1 C 90 % 1016,8 hPa 0,0 l/m 3,1 km/h (1 Bft) NW 308 0 min 0,6 UV-I 120 W/m 7,3 C 8,8 C 6,4 km/h (2 Bft)
12.10.2021 10:38 8,8 C 9,4 C 11,1 C 90 % 1016,7 hPa 0,0 l/m 4,6 km/h (1 Bft) NW 315 0 min 0,5 UV-I 98 W/m 7,3 C 8,5 C 8,0 km/h (2 Bft)
12.10.2021 10:40 8,8 C 8,9 C 11,7 C 90 % 1016,7 hPa 0,2 l/m 3,7 km/h (1 Bft) W-NW 287 0 min 0,5 UV-I 86 W/m 7,3 C 8,8 C 6,4 km/h (2 Bft)
12.10.2021 10:42 8,7 C 8,9 C 11,1 C 90 % 1016,7 hPa 0,0 l/m 3,7 km/h (1 Bft) W-NW 294 0 min 0,5 UV-I 63 W/m 7,2 C 8,7 C 6,4 km/h (2 Bft)
12.10.2021 10:44 8,7 C 8,9 C 11,1 C 90 % 1016,7 hPa 0,0 l/m 3,3 km/h (1 Bft) W 279 0 min 0,5 UV-I 58 W/m 7,2 C 8,7 C 6,4 km/h (2 Bft)
12.10.2021 10:46 8,7 C 8,9 C 11,1 C 90 % 1016,7 hPa 0,0 l/m 3,5 km/h (1 Bft) NW 324 0 min 0,5 UV-I 60 W/m 7,2 C 8,7 C 6,4 km/h (2 Bft)
12.10.2021 10:48 8,7 C 8,9 C 11,1 C 90 % 1016,7 hPa 0,0 l/m 3,1 km/h (1 Bft) N-NW 329 0 min 0,5 UV-I 62 W/m 7,2 C 8,7 C 6,4 km/h (2 Bft)
12.10.2021 10:50 8,7 C 8,9 C 11,1 C 90 % 1016,6 hPa 0,2 l/m 5,5 km/h (2 Bft) N-NW 337 0 min 0,0 UV-I 62 W/m 7,2 C 8,1 C 9,7 km/h (2 Bft)
12.10.2021 10:52 8,7 C 8,3 C 11,7 C 90 % 1016,6 hPa 0,4 l/m 5,7 km/h (2 Bft) W 269 0 min 0,0 UV-I 53 W/m 7,2 C 8,1 C 9,7 km/h (2 Bft)
12.10.2021 10:54 8,8 C 8,3 C 11,7 C 90 % 1016,5 hPa 0,2 l/m 6,8 km/h (2 Bft) W-NW 302 0 min 0,0 UV-I 44 W/m 7,3 C 7,9 C 12,9 km/h (3 Bft)
12.10.2021 10:56 8,8 C 8,3 C 11,1 C 90 % 1016,6 hPa 0,2 l/m 6,1 km/h (2 Bft) N 349 0 min 0,0 UV-I 42 W/m 7,3 C 8,1 C 11,3 km/h (2 Bft)
12.10.2021 10:58 8,7 C 8,3 C 11,1 C 90 % 1016,7 hPa 0,4 l/m 6,1 km/h (2 Bft) NW 323 0 min 0,0 UV-I 40 W/m 7,2 C 7,9 C 11,3 km/h (2 Bft)
12.10.2021 11:00 8,8 C 8,3 C 11,7 C 90 % 1016,6 hPa 0,4 l/m 6,6 km/h (2 Bft) N-NW 329 0 min 0,0 UV-I 37 W/m 7,3 C 7,9 C 11,3 km/h (2 Bft)
12.10.2021 11:02 8,7 C 8,3 C 11,1 C 90 % 1016,6 hPa 0,4 l/m 7,5 km/h (2 Bft) N-NW 337 0 min 0,0 UV-I 35 W/m 7,2 C 7,6 C 12,9 km/h (3 Bft)
12.10.2021 11:04 8,7 C 8,3 C 11,1 C 90 % 1016,6 hPa 0,4 l/m 6,6 km/h (2 Bft) NW 325 0 min 0,0 UV-I 33 W/m 7,2 C 7,8 C 11,3 km/h (2 Bft)
12.10.2021 11:06 8,7 C 8,3 C 11,1 C 90 % 1016,6 hPa 0,2 l/m 5,6 km/h (2 Bft) NW 308 0 min 0,0 UV-I 40 W/m 7,2 C 8,1 C 11,3 km/h (2 Bft)
12.10.2021 11:08 8,7 C 8,3 C 11,1 C 90 % 1016,6 hPa 0,4 l/m 4,5 km/h (1 Bft) N-NW 327 0 min 0,0 UV-I 46 W/m 7,2 C 8,7 C 8,0 km/h (2 Bft)
12.10.2021 11:10 8,7 C 8,3 C 11,1 C 90 % 1016,5 hPa 0,0 l/m 5,4 km/h (2 Bft) NW 304 0 min 0,0 UV-I 51 W/m 7,2 C 8,2 C 9,7 km/h (2 Bft)
12.10.2021 11:12 8,7 C 8,3 C 11,1 C 90 % 1016,6 hPa 0,2 l/m 4,9 km/h (1 Bft) NW 323 0 min 0,0 UV-I 42 W/m 7,2 C 8,3 C 11,3 km/h (2 Bft)
12.10.2021 11:14 8,7 C 8,9 C 11,1 C 90 % 1016,5 hPa 0,0 l/m 5,6 km/h (2 Bft) W-NW 296 0 min 0,6 UV-I 62 W/m 7,2 C 8,1 C 9,7 km/h (2 Bft)
12.10.2021 11:16 8,8 C 8,9 C 11,1 C 90 % 1016,5 hPa 0,0 l/m 4,9 km/h (1 Bft) NW 319 0 min 0,7 UV-I 83 W/m 7,3 C 8,4 C 8,0 km/h (2 Bft)
12.10.2021 11:18 8,9 C 9,4 C 11,1 C 90 % 1016,4 hPa 0,0 l/m 4,6 km/h (1 Bft) W 273 0 min 1,0 UV-I 146 W/m 7,4 C 8,6 C 8,0 km/h (2 Bft)
12.10.2021 11:20 8,9 C 10,0 C 11,1 C 90 % 1016,3 hPa 0,2 l/m 3,8 km/h (1 Bft) W 270 0 min 1,1 UV-I 186 W/m 7,4 C 8,9 C 8,0 km/h (2 Bft)
12.10.2021 11:22 9,0 C 10,0 C 11,1 C 90 % 1016,3 hPa 0,0 l/m 4,0 km/h (1 Bft) W 277 0 min 1,1 UV-I 209 W/m 7,4 C 9,0 C 8,0 km/h (2 Bft)
12.10.2021 11:24 9,1 C 10,0 C 11,1 C 90 % 1016,2 hPa 0,0 l/m 4,8 km/h (1 Bft) NW 311 0 min 1,0 UV-I 172 W/m 7,5 C 8,8 C 8,0 km/h (2 Bft)
12.10.2021 11:26 9,2 C 10,0 C 11,7 C 90 % 1016,3 hPa 0,0 l/m 3,9 km/h (1 Bft) NW 317 0 min 0,8 UV-I 134 W/m 7,6 C 9,2 C 6,4 km/h (2 Bft)
12.10.2021 11:28 9,2 C 10,0 C 11,1 C 90 % 1016,3 hPa 0,0 l/m 3,4 km/h (1 Bft) N 356 0 min 0,7 UV-I 102 W/m 7,6 C 9,2 C 6,4 km/h (2 Bft)
12.10.2021 11:30 9,3 C 10,0 C 11,1 C 90 % 1016,4 hPa 0,0 l/m 5,7 km/h (2 Bft) W-NW 295 0 min 0,7 UV-I 98 W/m 7,7 C 8,8 C 11,3 km/h (2 Bft)
12.10.2021 11:32 9,3 C 9,4 C 11,1 C 90 % 1016,3 hPa 0,0 l/m 4,8 km/h (1 Bft) W-NW 298 0 min 0,7 UV-I 102 W/m 7,7 C 9,0 C 9,7 km/h (2 Bft)
12.10.2021 11:34 9,3 C 10,0 C 11,1 C 90 % 1016,3 hPa 0,0 l/m 4,9 km/h (1 Bft) N-NW 335 0 min 0,8 UV-I 121 W/m 7,7 C 9,0 C 11,3 km/h (2 Bft)
12.10.2021 11:36 9,3 C 10,0 C 11,1 C 90 % 1016,3 hPa 0,0 l/m 4,3 km/h (1 Bft) N-NW 342 0 min 0,8 UV-I 121 W/m 7,7 C 9,3 C 8,0 km/h (2 Bft)
12.10.2021 11:38 9,3 C 10,0 C 11,1 C 90 % 1016,3 hPa 0,0 l/m 4,8 km/h (1 Bft) W-NW 292 0 min 0,8 UV-I 121 W/m 7,7 C 9,0 C 8,0 km/h (2 Bft)
12.10.2021 11:40 9,3 C 10,0 C 11,7 C 90 % 1016,2 hPa 0,0 l/m 5,0 km/h (1 Bft) N-NW 333 0 min 0,8 UV-I 120 W/m 7,7 C 9,0 C 11,3 km/h (2 Bft)
12.10.2021 11:42 9,3 C 10,0 C 11,1 C 90 % 1016,2 hPa 0,0 l/m 3,1 km/h (1 Bft) W-NW 295 0 min 0,9 UV-I 123 W/m 7,7 C 9,3 C 9,7 km/h (2 Bft)
12.10.2021 11:44 9,3 C 10,0 C 11,7 C 90 % 1016,1 hPa 0,0 l/m 3,5 km/h (1 Bft) N-NW 333 0 min 0,9 UV-I 121 W/m 7,7 C 9,3 C 8,0 km/h (2 Bft)
12.10.2021 11:46 9,4 C 10,0 C 11,1 C 90 % 1016,2 hPa 0,0 l/m 1,1 km/h (1 Bft) N-NW 348 0 min 1,0 UV-I 132 W/m 7,8 C 9,4 C 4,8 km/h (1 Bft)
12.10.2021 11:48 9,4 C 10,6 C 11,1 C 90 % 1016,2 hPa 0,0 l/m 5,4 km/h (2 Bft) N-NW 331 0 min 1,1 UV-I 155 W/m 7,8 C 9,0 C 8,0 km/h (2 Bft)
12.10.2021 11:50 9,5 C 10,6 C 11,7 C 90 % 1016,3 hPa 0,0 l/m 4,1 km/h (1 Bft) NW 325 0 min 1,1 UV-I 192 W/m 7,9 C 9,5 C 8,0 km/h (2 Bft)
12.10.2021 11:52 9,6 C 10,6 C 11,1 C 90 % 1016,3 hPa 0,0 l/m 6,3 km/h (2 Bft) N-NW 331 0 min 1,1 UV-I 186 W/m 8,0 C 8,9 C 9,7 km/h (2 Bft)
12.10.2021 11:54 9,6 C 10,6 C 11,7 C 90 % 1016,2 hPa 0,0 l/m 8,8 km/h (2 Bft) N 2 0 min 1,1 UV-I 183 W/m 8,0 C 8,4 C 12,9 km/h (3 Bft)
12.10.2021 11:56 9,6 C 10,6 C 11,7 C 90 % 1016,3 hPa 0,0 l/m 5,1 km/h (1 Bft) W-NW 302 0 min 1,1 UV-I 183 W/m 8,0 C 9,3 C 11,3 km/h (2 Bft)
12.10.2021 11:58 9,6 C 10,6 C 11,7 C 90 % 1016,3 hPa 0,0 l/m 3,7 km/h (1 Bft) NW 325 0 min 1,1 UV-I 192 W/m 8,0 C 9,6 C 6,4 km/h (2 Bft)
12.10.2021 12:00 9,7 C 11,1 C 11,7 C 90 % 1016,3 hPa 0,0 l/m 6,5 km/h (2 Bft) N-NW 346 0 min 1,1 UV-I 200 W/m 8,1 C 9,0 C 9,7 km/h (2 Bft)
12.10.2021 12:02 9,8 C 11,1 C 11,7 C 90 % 1016,4 hPa 0,0 l/m 6,4 km/h (2 Bft) N-NW 334 0 min 1,0 UV-I 197 W/m 8,2 C 9,1 C 11,3 km/h (2 Bft)
12.10.2021 12:04 9,8 C 11,1 C 11,1 C 90 % 1016,4 hPa 0,0 l/m 7,4 km/h (2 Bft) NW 306 0 min 0,8 UV-I 137 W/m 8,2 C 8,9 C 14,5 km/h (3 Bft)
12.10.2021 12:06 9,8 C 11,1 C 11,7 C 90 % 1016,4 hPa 0,0 l/m 8,3 km/h (2 Bft) N-NW 327 0 min 0,7 UV-I 116 W/m 8,2 C 8,7 C 14,5 km/h (3 Bft)
12.10.2021 12:08 9,8 C 10,6 C 11,1 C 90 % 1016,3 hPa 0,0 l/m 5,3 km/h (1 Bft) NW 320 0 min 0,7 UV-I 104 W/m 8,2 C 9,4 C 9,7 km/h (2 Bft)
12.10.2021 12:10 9,8 C 10,6 C 11,7 C 90 % 1016,3 hPa 0,0 l/m 5,7 km/h (2 Bft) W-NW 296 0 min 0,8 UV-I 121 W/m 8,2 C 9,3 C 9,7 km/h (2 Bft)
12.10.2021 12:12 9,8 C 10,6 C 11,7 C 90 % 1016,2 hPa 0,0 l/m 5,2 km/h (1 Bft) W-NW 302 0 min 0,9 UV-I 132 W/m 8,2 C 9,5 C 8,0 km/h (2 Bft)
12.10.2021 12:14 9,8 C 10,6 C 11,1 C 90 % 1016,3 hPa 0,0 l/m 7,6 km/h (2 Bft) NW 325 0 min 1,0 UV-I 132 W/m 8,2 C 8,9 C 12,9 km/h (3 Bft)
12.10.2021 12:16 9,8 C 11,1 C 11,7 C 89 % 1016,2 hPa 0,0 l/m 5,8 km/h (2 Bft) N-NW 344 0 min 1,1 UV-I 142 W/m 8,1 C 9,3 C 11,3 km/h (2 Bft)
12.10.2021 12:18 9,9 C 10,6 C 11,7 C 90 % 1016,1 hPa 0,0 l/m 7,8 km/h (2 Bft) NW 319 0 min 1,0 UV-I 134 W/m 8,3 C 8,9 C 11,3 km/h (2 Bft)
12.10.2021 12:20 9,9 C 11,1 C 11,7 C 89 % 1016,2 hPa 0,0 l/m 6,4 km/h (2 Bft) N-NO 19 0 min 1,0 UV-I 171 W/m 8,2 C 9,3 C 11,3 km/h (2 Bft)
12.10.2021 12:22 10,0 C 12,2 C 11,1 C 89 % 1016,1 hPa 0,0 l/m 5,5 km/h (2 Bft) N-NW 332 0 min 1,3 UV-I 237 W/m 8,3 C 9,6 C 9,7 km/h (2 Bft)
12.10.2021 12:24 10,1 C 12,2 C 11,7 C 90 % 1016,2 hPa 0,0 l/m 4,1 km/h (1 Bft) NW 313 0 min 1,3 UV-I 239 W/m 8,5 C 10,1 C 8,0 km/h (2 Bft)
12.10.2021 12:26 10,2 C 12,2 C 11,1 C 90 % 1016,1 hPa 0,0 l/m 8,1 km/h (2 Bft) N-NW 331 0 min 1,3 UV-I 199 W/m 8,6 C 10,2 C 16,1 km/h (3 Bft)
12.10.2021 12:28 10,2 C 12,2 C 11,7 C 89 % 1016,2 hPa 0,0 l/m 8,4 km/h (2 Bft) N 8 0 min 1,4 UV-I 248 W/m 8,5 C 10,2 C 14,5 km/h (3 Bft)
12.10.2021 12:30 10,2 C 12,8 C 11,7 C 89 % 1016,2 hPa 0,0 l/m 6,3 km/h (2 Bft) N-NW 348 0 min 1,3 UV-I 221 W/m 8,5 C 10,2 C 12,9 km/h (3 Bft)
12.10.2021 12:32 10,2 C 12,8 C 11,7 C 89 % 1016,1 hPa 0,0 l/m 11,5 km/h (2 Bft) N-NW 334 0 min 1,1 UV-I 163 W/m 8,5 C 10,2 C 17,7 km/h (3 Bft)
12.10.2021 12:34 10,2 C 11,7 C 11,7 C 89 % 1016,1 hPa 0,0 l/m 7,5 km/h (2 Bft) N-NW 342 0 min 1,2 UV-I 113 W/m 8,5 C 10,2 C 11,3 km/h (2 Bft)
12.10.2021 12:36 10,2 C 11,1 C 11,7 C 89 % 1016,1 hPa 0,0 l/m 8,7 km/h (2 Bft) N 1 0 min 1,3 UV-I 121 W/m 8,5 C 10,2 C 19,3 km/h (3 Bft)
12.10.2021 12:38 10,2 C 11,1 C 11,7 C 88 % 1016,0 hPa 0,0 l/m 10,4 km/h (2 Bft) N-NW 329 0 min 1,4 UV-I 192 W/m 8,3 C 10,2 C 17,7 km/h (3 Bft)
12.10.2021 12:40 10,3 C 13,3 C 11,7 C 89 % 1016,0 hPa 0,0 l/m 6,3 km/h (2 Bft) NW 323 2 min 1,6 UV-I 339 W/m 8,6 C 10,3 C 9,7 km/h (2 Bft)
12.10.2021 12:42 10,4 C 13,9 C 11,7 C 88 % 1016,0 hPa 0,0 l/m 9,3 km/h (2 Bft) N-NW 339 0 min 1,4 UV-I 267 W/m 8,5 C 10,4 C 16,1 km/h (3 Bft)
12.10.2021 12:44 10,6 C 12,8 C 11,7 C 89 % 1016,1 hPa 0,0 l/m 6,1 km/h (2 Bft) N-NO 15 0 min 1,3 UV-I 146 W/m 8,9 C 10,6 C 11,3 km/h (2 Bft)
12.10.2021 12:46 10,7 C 12,8 C 11,7 C 88 % 1016,0 hPa 0,0 l/m 5,9 km/h (2 Bft) NW 326 0 min 1,2 UV-I 209 W/m 8,8 C 10,7 C 12,9 km/h (3 Bft)
12.10.2021 12:48 10,6 C 12,8 C 11,7 C 88 % 1016,0 hPa 0,0 l/m 7,9 km/h (2 Bft) N-NW 346 0 min 1,0 UV-I 137 W/m 8,7 C 10,6 C 12,9 km/h (3 Bft)
12.10.2021 12:50 10,6 C 11,7 C 11,7 C 88 % 1016,0 hPa 0,0 l/m 8,5 km/h (2 Bft) N 360 0 min 1,1 UV-I 130 W/m 8,7 C 10,6 C 12,9 km/h (3 Bft)
12.10.2021 12:52 10,6 C 12,2 C 11,7 C 88 % 1015,9 hPa 0,0 l/m 5,4 km/h (2 Bft) N-NO 20 0 min 1,3 UV-I 197 W/m 8,7 C 10,6 C 9,7 km/h (2 Bft)
12.10.2021 12:54 10,6 C 12,8 C 11,7 C 87 % 1015,9 hPa 0,0 l/m 10,6 km/h (2 Bft) N-NW 338 0 min 1,3 UV-I 199 W/m 8,5 C 10,6 C 16,1 km/h (3 Bft)
12.10.2021 12:56 10,5 C 12,8 C 11,7 C 87 % 1015,9 hPa 0,0 l/m 10,8 km/h (2 Bft) N-NO 21 0 min 1,3 UV-I 204 W/m 8,4 C 10,5 C 14,5 km/h (3 Bft)
12.10.2021 12:58 10,5 C 12,8 C 11,7 C 87 % 1015,9 hPa 0,0 l/m 9,6 km/h (2 Bft) NW 311 0 min 1,7 UV-I 250 W/m 8,4 C 10,5 C 16,1 km/h (3 Bft)
12.10.2021 13:00 10,6 C 15,0 C 11,7 C 86 % 1015,9 hPa 0,0 l/m 8,9 km/h (2 Bft) N-NO 17 0 min 1,3 UV-I 250 W/m 8,4 C 10,6 C 14,5 km/h (3 Bft)
12.10.2021 13:02 10,8 C 15,6 C 11,7 C 87 % 1015,9 hPa 0,0 l/m 7,4 km/h (2 Bft) N 360 2 min 1,6 UV-I 316 W/m 8,7 C 10,8 C 14,5 km/h (3 Bft)
12.10.2021 13:04 10,9 C 15,6 C 11,7 C 86 % 1015,8 hPa 0,0 l/m 10,7 km/h (2 Bft) N-NO 14 2 min 1,7 UV-I 383 W/m 8,7 C 10,9 C 19,3 km/h (3 Bft)
12.10.2021 13:06 11,0 C 16,1 C 11,7 C 85 % 1015,8 hPa 0,0 l/m 11,6 km/h (2 Bft) N-NW 330 2 min 1,7 UV-I 464 W/m 8,6 C 11,0 C 19,3 km/h (3 Bft)
12.10.2021 13:08 11,1 C 16,1 C 11,7 C 85 % 1015,7 hPa 0,0 l/m 9,8 km/h (2 Bft) NW 313 2 min 1,7 UV-I 438 W/m 8,7 C 11,1 C 14,5 km/h (3 Bft)
12.10.2021 13:10 11,2 C 16,7 C 11,7 C 85 % 1015,7 hPa 0,0 l/m 6,1 km/h (2 Bft) NW 318 2 min 1,5 UV-I 323 W/m 8,8 C 11,2 C 14,5 km/h (3 Bft)
12.10.2021 13:12 11,3 C 16,7 C 11,7 C 85 % 1015,7 hPa 0,0 l/m 8,8 km/h (2 Bft) N-NO 18 2 min 1,6 UV-I 374 W/m 8,9 C 11,3 C 14,5 km/h (3 Bft)
12.10.2021 13:14 11,4 C 16,7 C 11,7 C 84 % 1015,6 hPa 0,0 l/m 6,0 km/h (2 Bft) N-NW 330 2 min 1,6 UV-I 327 W/m 8,8 C 11,4 C 12,9 km/h (3 Bft)
12.10.2021 13:16 11,4 C 16,1 C 11,7 C 84 % 1015,6 hPa 0,0 l/m 12,8 km/h (3 Bft) N-NW 331 0 min 1,4 UV-I 269 W/m 8,8 C 11,4 C 20,9 km/h (4 Bft)
12.10.2021 13:18 11,3 C 15,0 C 11,7 C 81 % 1015,6 hPa 0,0 l/m 13,7 km/h (3 Bft) N-NW 339 2 min 1,5 UV-I 283 W/m 8,2 C 11,3 C 20,9 km/h (4 Bft)
12.10.2021 13:20 11,3 C 15,0 C 11,7 C 81 % 1015,5 hPa 0,0 l/m 9,5 km/h (2 Bft) N 6 2 min 1,5 UV-I 302 W/m 8,2 C 11,3 C 16,1 km/h (3 Bft)
12.10.2021 13:22 11,3 C 15,0 C 11,7 C 82 % 1015,5 hPa 0,0 l/m 10,2 km/h (2 Bft) N-NO 27 0 min 1,8 UV-I 236 W/m 8,3 C 11,3 C 19,3 km/h (3 Bft)
12.10.2021 13:24 11,3 C 15,6 C 11,7 C 82 % 1015,4 hPa 0,0 l/m 8,0 km/h (2 Bft) N-NW 346 0 min 1,4 UV-I 225 W/m 8,3 C 11,3 C 12,9 km/h (3 Bft)
12.10.2021 13:26 11,3 C 15,0 C 11,7 C 82 % 1015,5 hPa 0,0 l/m 5,6 km/h (2 Bft) NW 313 0 min 1,3 UV-I 151 W/m 8,3 C 11,3 C 11,3 km/h (2 Bft)
12.10.2021 13:28 11,3 C 13,9 C 11,7 C 81 % 1015,4 hPa 0,0 l/m 13,1 km/h (3 Bft) N 352 0 min 1,4 UV-I 158 W/m 8,2 C 11,3 C 19,3 km/h (3 Bft)
12.10.2021 13:30 11,1 C 12,8 C 11,7 C 80 % 1015,4 hPa 0,0 l/m 12,1 km/h (2 Bft) N 2 0 min 1,4 UV-I 199 W/m 7,8 C 11,1 C 20,9 km/h (4 Bft)
12.10.2021 13:32 11,1 C 13,9 C 11,7 C 81 % 1015,4 hPa 0,0 l/m 7,5 km/h (2 Bft) N 358 2 min 1,9 UV-I 378 W/m 8,0 C 11,1 C 12,9 km/h (3 Bft)
12.10.2021 13:34 11,4 C 16,7 C 11,7 C 81 % 1015,3 hPa 0,0 l/m 4,4 km/h (1 Bft) NW 321 2 min 1,8 UV-I 517 W/m 8,3 C 11,4 C 11,3 km/h (2 Bft)
12.10.2021 13:36 11,6 C 17,2 C 11,7 C 80 % 1015,3 hPa 0,0 l/m 11,5 km/h (2 Bft) N-NW 348 2 min 1,9 UV-I 517 W/m 8,3 C 11,6 C 17,7 km/h (3 Bft)
12.10.2021 13:38 11,6 C 17,8 C 11,7 C 80 % 1015,3 hPa 0,0 l/m 11,4 km/h (2 Bft) N 2 2 min 1,8 UV-I 531 W/m 8,3 C 11,6 C 17,7 km/h (3 Bft)
12.10.2021 13:40 11,7 C 17,8 C 11,7 C 80 % 1015,3 hPa 0,0 l/m 9,5 km/h (2 Bft) N-NW 335 2 min 1,4 UV-I 466 W/m 8,4 C 11,7 C 16,1 km/h (3 Bft)
12.10.2021 13:42 11,6 C 16,7 C 11,7 C 79 % 1015,2 hPa 0,0 l/m 11,3 km/h (2 Bft) N-NW 334 0 min 1,7 UV-I 160 W/m 8,1 C 11,6 C 19,3 km/h (3 Bft)
12.10.2021 13:44 11,7 C 18,3 C 11,7 C 80 % 1015,2 hPa 0,0 l/m 10,2 km/h (2 Bft) NW 308 2 min 1,6 UV-I 578 W/m 8,4 C 11,7 C 16,1 km/h (3 Bft)
12.10.2021 13:46 11,7 C 17,8 C 11,7 C 79 % 1015,2 hPa 0,0 l/m 10,5 km/h (2 Bft) NO 36 0 min 1,4 UV-I 186 W/m 8,2 C 11,7 C 19,3 km/h (3 Bft)
12.10.2021 13:48 11,7 C 17,8 C 11,7 C 79 % 1015,2 hPa 0,0 l/m 9,0 km/h (2 Bft) N-NW 348 0 min 1,9 UV-I 186 W/m 8,2 C 11,7 C 16,1 km/h (3 Bft)
12.10.2021 13:50 11,9 C 19,4 C 11,7 C 79 % 1015,1 hPa 0,0 l/m 10,5 km/h (2 Bft) N 350 2 min 1,9 UV-I 534 W/m 8,4 C 11,9 C 19,3 km/h (3 Bft)
12.10.2021 13:52 12,0 C 21,1 C 11,7 C 78 % 1015,2 hPa 0,0 l/m 9,0 km/h (2 Bft) N 2 2 min 1,9 UV-I 513 W/m 8,3 C 12,0 C 16,1 km/h (3 Bft)
12.10.2021 13:54 12,1 C 21,1 C 11,7 C 78 % 1015,2 hPa 0,0 l/m 6,5 km/h (2 Bft) N-NW 346 2 min 1,3 UV-I 522 W/m 8,4 C 12,1 C 12,9 km/h (3 Bft)
12.10.2021 13:56 12,1 C 20,0 C 11,7 C 77 % 1015,2 hPa 0,0 l/m 9,7 km/h (2 Bft) N-NW 338 2 min 1,8 UV-I 515 W/m 8,2 C 12,1 C 19,3 km/h (3 Bft)
12.10.2021 13:58 12,2 C 21,1 C 11,7 C 76 % 1015,1 hPa 0,0 l/m 10,6 km/h (2 Bft) NW 319 2 min 1,8 UV-I 512 W/m 8,1 C 12,2 C 19,3 km/h (3 Bft)
12.10.2021 14:00 12,1 C 21,7 C 11,7 C 76 % 1015,1 hPa 0,0 l/m 10,5 km/h (2 Bft) N-NO 13 2 min 1,8 UV-I 510 W/m 8,0 C 12,1 C 19,3 km/h (3 Bft)
12.10.2021 14:02 12,2 C 21,1 C 11,7 C 76 % 1015,1 hPa 0,0 l/m 10,6 km/h (2 Bft) N-NW 340 2 min 1,5 UV-I 417 W/m 8,1 C 12,2 C 17,7 km/h (3 Bft)
12.10.2021 14:04 12,3 C 20,6 C 11,7 C 75 % 1015,1 hPa 0,0 l/m 10,4 km/h (2 Bft) NW 322 0 min 1,2 UV-I 167 W/m 8,0 C 12,3 C 17,7 km/h (3 Bft)
12.10.2021 14:06 12,2 C 15,6 C 11,7 C 75 % 1015,1 hPa 0,0 l/m 7,7 km/h (2 Bft) N-NW 335 0 min 1,2 UV-I 149 W/m 7,9 C 12,2 C 16,1 km/h (3 Bft)
12.10.2021 14:08 11,9 C 13,9 C 11,7 C 74 % 1015,0 hPa 0,0 l/m 13,7 km/h (3 Bft) N 11 0 min 1,5 UV-I 167 W/m 7,4 C 11,9 C 19,3 km/h (3 Bft)
12.10.2021 14:10 11,8 C 13,9 C 11,7 C 73 % 1015,0 hPa 0,0 l/m 11,0 km/h (2 Bft) N 2 0 min 1,2 UV-I 146 W/m 7,1 C 11,8 C 19,3 km/h (3 Bft)
12.10.2021 14:12 11,7 C 13,3 C 11,7 C 73 % 1015,0 hPa 0,0 l/m 12,1 km/h (2 Bft) N 359 0 min 1,3 UV-I 132 W/m 7,0 C 11,7 C 24,1 km/h (4 Bft)
12.10.2021 14:14 11,6 C 12,8 C 11,7 C 72 % 1015,0 hPa 0,0 l/m 12,9 km/h (3 Bft) N 357 0 min 1,7 UV-I 179 W/m 6,7 C 11,6 C 20,9 km/h (4 Bft)
12.10.2021 14:16 11,8 C 15,6 C 11,7 C 72 % 1015,0 hPa 0,0 l/m 9,5 km/h (2 Bft) N 3 2 min 1,7 UV-I 487 W/m 6,9 C 11,8 C 16,1 km/h (3 Bft)
12.10.2021 14:18 12,1 C 18,9 C 11,7 C 73 % 1015,0 hPa 0,0 l/m 10,1 km/h (2 Bft) N-NW 341 2 min 1,7 UV-I 501 W/m 7,4 C 12,1 C 19,3 km/h (3 Bft)
12.10.2021 14:20 12,2 C 20,0 C 11,7 C 69 % 1015,0 hPa 0,0 l/m 14,0 km/h (3 Bft) N-NW 334 2 min 1,6 UV-I 480 W/m 6,7 C 12,2 C 20,9 km/h (4 Bft)
12.10.2021 14:22 12,3 C 20,0 C 11,7 C 69 % 1015,0 hPa 0,0 l/m 12,6 km/h (3 Bft) N 358 2 min 1,2 UV-I 471 W/m 6,8 C 12,3 C 19,3 km/h (3 Bft)
12.10.2021 14:24 12,3 C 16,1 C 11,7 C 69 % 1015,0 hPa 0,0 l/m 7,7 km/h (2 Bft) N 358 0 min 0,0 UV-I 51 W/m 6,8 C 12,3 C 14,5 km/h (3 Bft)
12.10.2021 14:26 12,1 C 13,9 C 11,7 C 70 % 1015,0 hPa 0,0 l/m 5,5 km/h (2 Bft) N-NO 29 0 min 1,1 UV-I 58 W/m 6,8 C 12,1 C 9,7 km/h (2 Bft)
12.10.2021 14:28 11,8 C 12,8 C 11,7 C 72 % 1015,0 hPa 0,0 l/m 5,0 km/h (1 Bft) NO 42 0 min 0,0 UV-I 47 W/m 6,9 C 11,8 C 9,7 km/h (2 Bft)
12.10.2021 14:30 11,6 C 12,2 C 11,7 C 72 % 1015,0 hPa 0,0 l/m 8,3 km/h (2 Bft) N 358 0 min 0,0 UV-I 47 W/m 6,7 C 11,6 C 20,9 km/h (4 Bft)
12.10.2021 14:32 11,3 C 11,1 C 11,7 C 71 % 1014,9 hPa 0,0 l/m 10,0 km/h (2 Bft) N-NW 344 0 min 0,0 UV-I 53 W/m 6,2 C 11,3 C 14,5 km/h (3 Bft)
12.10.2021 14:34 11,3 C 11,1 C 11,7 C 72 % 1014,9 hPa 0,0 l/m 9,9 km/h (2 Bft) N 9 0 min 1,6 UV-I 114 W/m 6,4 C 11,3 C 16,1 km/h (3 Bft)
12.10.2021 14:36 11,6 C 12,8 C 11,7 C 72 % 1014,8 hPa 0,0 l/m 8,1 km/h (2 Bft) N 354 2 min 1,6 UV-I 443 W/m 6,7 C 11,6 C 14,5 km/h (3 Bft)
12.10.2021 14:38 12,0 C 13,9 C 11,7 C 72 % 1014,8 hPa 0,0 l/m 10,6 km/h (2 Bft) N 3 2 min 1,5 UV-I 445 W/m 7,1 C 12,0 C 16,1 km/h (3 Bft)
12.10.2021 14:40 12,2 C 13,9 C 11,7 C 71 % 1014,8 hPa 0,0 l/m 9,4 km/h (2 Bft) N-NW 339 2 min 1,4 UV-I 454 W/m 7,1 C 12,2 C 12,9 km/h (3 Bft)
12.10.2021 14:42 12,1 C 13,3 C 11,7 C 71 % 1014,8 hPa 0,0 l/m 8,4 km/h (2 Bft) N-NW 327 0 min 0,0 UV-I 69 W/m 7,0 C 12,1 C 12,9 km/h (3 Bft)
12.10.2021 14:44 12,0 C 12,8 C 11,7 C 72 % 1014,8 hPa 0,0 l/m 7,1 km/h (2 Bft) N 358 0 min 1,1 UV-I 60 W/m 7,1 C 12,0 C 14,5 km/h (3 Bft)
12.10.2021 14:46 11,8 C 11,7 C 11,7 C 73 % 1014,8 hPa 0,0 l/m 8,2 km/h (2 Bft) N 8 0 min 1,2 UV-I 76 W/m 7,1 C 11,8 C 16,1 km/h (3 Bft)
12.10.2021 14:48 11,8 C 13,9 C 11,7 C 73 % 1014,7 hPa 0,0 l/m 11,8 km/h (2 Bft) N-NW 348 2 min 1,5 UV-I 427 W/m 7,1 C 11,8 C 16,1 km/h (3 Bft)
12.10.2021 14:50 12,1 C 16,7 C 11,7 C 74 % 1014,8 hPa 0,0 l/m 8,6 km/h (2 Bft) N-NW 338 2 min 1,4 UV-I 427 W/m 7,6 C 12,1 C 14,5 km/h (3 Bft)
12.10.2021 14:52 12,2 C 17,8 C 11,7 C 73 % 1014,7 hPa 0,0 l/m 10,1 km/h (2 Bft) N-NO 15 2 min 1,4 UV-I 425 W/m 7,5 C 12,2 C 14,5 km/h (3 Bft)
12.10.2021 14:54 12,4 C 20,0 C 11,7 C 72 % 1014,8 hPa 0,0 l/m 11,4 km/h (2 Bft) N-NW 346 2 min 1,4 UV-I 438 W/m 7,5 C 12,4 C 20,9 km/h (4 Bft)
12.10.2021 14:56 12,3 C 17,8 C 11,7 C 70 % 1014,8 hPa 0,0 l/m 13,4 km/h (3 Bft) N-NW 344 0 min 1,4 UV-I 113 W/m 7,0 C 12,3 C 20,9 km/h (4 Bft)
12.10.2021 14:58 12,4 C 19,4 C 11,7 C 71 % 1014,8 hPa 0,0 l/m 10,1 km/h (2 Bft) N-NW 338 2 min 1,3 UV-I 431 W/m 7,3 C 12,4 C 14,5 km/h (3 Bft)
12.10.2021 15:00 12,4 C 20,0 C 11,7 C 70 % 1014,7 hPa 0,0 l/m 11,1 km/h (2 Bft) N 351 2 min 1,3 UV-I 434 W/m 7,1 C 12,4 C 16,1 km/h (3 Bft)
12.10.2021 15:02 12,4 C 17,8 C 11,7 C 70 % 1014,8 hPa 0,0 l/m 10,9 km/h (2 Bft) N-NO 29 0 min 1,3 UV-I 100 W/m 7,1 C 12,4 C 17,7 km/h (3 Bft)
12.10.2021 15:04 12,4 C 19,4 C 12,2 C 71 % 1014,8 hPa 0,0 l/m 5,9 km/h (2 Bft) N 353 2 min 1,3 UV-I 410 W/m 7,3 C 12,4 C 12,9 km/h (3 Bft)
12.10.2021 15:06 12,7 C 21,1 C 11,7 C 72 % 1014,8 hPa 0,0 l/m 7,1 km/h (2 Bft) N 353 2 min 1,3 UV-I 406 W/m 7,8 C 12,7 C 16,1 km/h (3 Bft)
12.10.2021 15:08 12,8 C 21,1 C 12,2 C 72 % 1014,8 hPa 0,0 l/m 7,6 km/h (2 Bft) N 354 2 min 1,0 UV-I 410 W/m 7,9 C 12,8 C 12,9 km/h (3 Bft)
12.10.2021 15:10 12,8 C 21,7 C 12,2 C 72 % 1014,8 hPa 0,0 l/m 7,4 km/h (2 Bft) N-NW 345 2 min 1,2 UV-I 408 W/m 7,9 C 12,8 C 11,3 km/h (2 Bft)
12.10.2021 15:12 12,8 C 21,7 C 11,7 C 72 % 1014,8 hPa 0,0 l/m 7,9 km/h (2 Bft) NW 321 2 min 1,2 UV-I 408 W/m 7,9 C 12,8 C 14,5 km/h (3 Bft)
12.10.2021 15:14 12,8 C 22,2 C 11,7 C 70 % 1014,7 hPa 0,0 l/m 10,1 km/h (2 Bft) N-NW 335 2 min 1,0 UV-I 410 W/m 7,5 C 12,8 C 17,7 km/h (3 Bft)
12.10.2021 15:16 12,7 C 20,6 C 11,7 C 69 % 1014,8 hPa 0,0 l/m 7,3 km/h (2 Bft) NW 322 2 min 1,2 UV-I 350 W/m 7,2 C 12,7 C 11,3 km/h (2 Bft)
12.10.2021 15:18 12,7 C 20,0 C 11,7 C 69 % 1014,8 hPa 0,0 l/m 8,5 km/h (2 Bft) N 11 0 min 0,9 UV-I 76 W/m 7,2 C 12,7 C 12,9 km/h (3 Bft)
12.10.2021 15:20 12,5 C 16,7 C 11,7 C 68 % 1014,7 hPa 0,0 l/m 9,2 km/h (2 Bft) NW 323 0 min 1,0 UV-I 86 W/m 6,8 C 12,5 C 14,5 km/h (3 Bft)
12.10.2021 15:22 12,4 C 17,2 C 12,2 C 68 % 1014,8 hPa 0,0 l/m 9,7 km/h (2 Bft) N 350 2 min 1,1 UV-I 385 W/m 6,7 C 12,4 C 20,9 km/h (4 Bft)
12.10.2021 15:24 12,4 C 18,3 C 11,7 C 66 % 1014,7 hPa 0,0 l/m 15,0 km/h (3 Bft) N-NW 341 2 min 1,1 UV-I 378 W/m 6,2 C 12,4 C 22,5 km/h (4 Bft)
12.10.2021 15:26 12,5 C 19,4 C 11,7 C 66 % 1014,7 hPa 0,0 l/m 13,2 km/h (3 Bft) N 350 2 min 1,1 UV-I 373 W/m 6,3 C 12,5 C 19,3 km/h (3 Bft)
12.10.2021 15:28 12,6 C 19,4 C 12,2 C 64 % 1014,7 hPa 0,0 l/m 16,1 km/h (3 Bft) N-NW 333 2 min 1,1 UV-I 374 W/m 6,0 C 12,6 C 22,5 km/h (4 Bft)
12.10.2021 15:30 12,6 C 20,0 C 12,2 C 65 % 1014,7 hPa 0,0 l/m 11,4 km/h (2 Bft) N-NW 332 2 min 1,1 UV-I 369 W/m 6,2 C 12,6 C 17,7 km/h (3 Bft)
12.10.2021 15:32 12,7 C 20,0 C 12,2 C 65 % 1014,7 hPa 0,0 l/m 13,0 km/h (3 Bft) N 9 2 min 1,1 UV-I 360 W/m 6,3 C 12,7 C 20,9 km/h (4 Bft)
12.10.2021 15:34 12,8 C 20,0 C 12,2 C 64 % 1014,8 hPa 0,0 l/m 16,5 km/h (3 Bft) N 358 2 min 1,0 UV-I 353 W/m 6,2 C 12,8 C 22,5 km/h (4 Bft)
12.10.2021 15:36 12,7 C 19,4 C 12,2 C 63 % 1014,7 hPa 0,0 l/m 12,8 km/h (3 Bft) N 4 2 min 1,0 UV-I 345 W/m 5,8 C 12,7 C 19,3 km/h (3 Bft)
12.10.2021 15:38 12,8 C 20,6 C 11,7 C 64 % 1014,7 hPa 0,0 l/m 14,1 km/h (3 Bft) N-NW 329 2 min 1,0 UV-I 343 W/m 6,2 C 12,8 C 22,5 km/h (4 Bft)
12.10.2021 15:40 12,8 C 20,6 C 12,2 C 64 % 1014,8 hPa 0,0 l/m 10,8 km/h (2 Bft) N 353 2 min 1,0 UV-I 346 W/m 6,2 C 12,8 C 19,3 km/h (3 Bft)
12.10.2021 15:42 12,9 C 21,1 C 11,7 C 65 % 1014,7 hPa 0,0 l/m 13,2 km/h (3 Bft) N 351 2 min 1,0 UV-I 353 W/m 6,5 C 12,9 C 22,5 km/h (4 Bft)
12.10.2021 15:44 12,9 C 20,0 C 12,2 C 63 % 1014,8 hPa 0,0 l/m 12,6 km/h (3 Bft) N-NW 344 2 min 0,9 UV-I 345 W/m 6,0 C 12,9 C 19,3 km/h (3 Bft)
12.10.2021 15:46 13,1 C 20,0 C 12,2 C 64 % 1014,8 hPa 0,0 l/m 10,2 km/h (2 Bft) N 9 2 min 0,9 UV-I 359 W/m 6,4 C 13,1 C 17,7 km/h (3 Bft)
12.10.2021 15:48 13,1 C 18,9 C 11,7 C 64 % 1014,8 hPa 0,0 l/m 10,1 km/h (2 Bft) N-NO 25 2 min 0,9 UV-I 364 W/m 6,4 C 13,1 C 17,7 km/h (3 Bft)
12.10.2021 15:50 13,2 C 16,7 C 12,2 C 64 % 1014,8 hPa 0,0 l/m 8,9 km/h (2 Bft) N-NO 29 2 min 0,7 UV-I 292 W/m 6,5 C 13,2 C 12,9 km/h (3 Bft)
12.10.2021 15:52 13,2 C 16,1 C 12,2 C 64 % 1014,8 hPa 0,0 l/m 11,4 km/h (2 Bft) NW 323 2 min 0,8 UV-I 383 W/m 6,5 C 13,2 C 17,7 km/h (3 Bft)
12.10.2021 15:54 13,2 C 15,6 C 12,2 C 63 % 1014,9 hPa 0,0 l/m 12,5 km/h (2 Bft) N-NO 19 2 min 0,8 UV-I 360 W/m 6,3 C 13,2 C 22,5 km/h (4 Bft)
12.10.2021 15:56 13,1 C 15,0 C 12,2 C 63 % 1014,9 hPa 0,0 l/m 13,0 km/h (3 Bft) O-NO 74 0 min 0,7 UV-I 95 W/m 6,2 C 13,1 C 25,7 km/h (4 Bft)
12.10.2021 15:58 12,7 C 13,3 C 12,2 C 62 % 1014,9 hPa 0,0 l/m 12,5 km/h (2 Bft) N-NW 333 0 min 0,7 UV-I 63 W/m 5,6 C 12,7 C 22,5 km/h (4 Bft)
12.10.2021 16:00 12,4 C 12,8 C 12,2 C 60 % 1014,9 hPa 0,0 l/m 13,9 km/h (3 Bft) N 4 0 min 0,0 UV-I 53 W/m 4,9 C 12,4 C 24,1 km/h (4 Bft)
12.10.2021 16:02 12,2 C 11,7 C 12,2 C 60 % 1014,9 hPa 0,0 l/m 13,4 km/h (3 Bft) N 5 0 min 0,0 UV-I 44 W/m 4,7 C 12,2 C 22,5 km/h (4 Bft)
12.10.2021 16:04 12,1 C 11,7 C 12,2 C 61 % 1014,9 hPa 0,0 l/m 11,1 km/h (2 Bft) N-NO 17 2 min 0,8 UV-I 285 W/m 4,8 C 12,1 C 20,9 km/h (4 Bft)
12.10.2021 16:06 12,2 C 12,2 C 12,2 C 61 % 1014,9 hPa 0,0 l/m 10,7 km/h (2 Bft) N 4 2 min 0,8 UV-I 295 W/m 4,9 C 12,2 C 17,7 km/h (3 Bft)
12.10.2021 16:08 12,3 C 12,8 C 12,2 C 62 % 1015,0 hPa 0,0 l/m 11,1 km/h (2 Bft) N 3 2 min 0,8 UV-I 294 W/m 5,2 C 12,3 C 20,9 km/h (4 Bft)
12.10.2021 16:10 12,4 C 12,8 C 12,2 C 62 % 1015,0 hPa 0,0 l/m 13,0 km/h (3 Bft) N-NO 28 2 min 0,8 UV-I 267 W/m 5,3 C 12,4 C 19,3 km/h (3 Bft)
12.10.2021 16:12 12,4 C 12,8 C 12,2 C 60 % 1014,9 hPa 0,0 l/m 15,1 km/h (3 Bft) N 349 2 min 0,7 UV-I 288 W/m 4,9 C 12,4 C 20,9 km/h (4 Bft)
12.10.2021 16:14 12,5 C 12,8 C 12,2 C 61 % 1015,0 hPa 0,0 l/m 12,7 km/h (3 Bft) N-NO 25 2 min 0,7 UV-I 287 W/m 5,2 C 12,5 C 22,5 km/h (4 Bft)
12.10.2021 16:16 12,6 C 12,8 C 12,2 C 60 % 1015,0 hPa 0,0 l/m 8,1 km/h (2 Bft) N-NW 332 2 min 0,7 UV-I 281 W/m 5,0 C 12,6 C 16,1 km/h (3 Bft)
12.10.2021 16:18 12,6 C 13,3 C 12,2 C 57 % 1015,0 hPa 0,0 l/m 16,7 km/h (3 Bft) N 3 2 min 0,7 UV-I 278 W/m 4,3 C 12,6 C 24,1 km/h (4 Bft)
12.10.2021 16:20 12,7 C 14,4 C 12,2 C 56 % 1015,0 hPa 0,0 l/m 12,3 km/h (2 Bft) N 8 2 min 0,7 UV-I 271 W/m 4,2 C 12,7 C 20,9 km/h (4 Bft)
12.10.2021 16:22 12,8 C 16,1 C 12,2 C 57 % 1015,0 hPa 0,0 l/m 8,5 km/h (2 Bft) N-NO 27 2 min 0,7 UV-I 260 W/m 4,5 C 12,8 C 22,5 km/h (4 Bft)
12.10.2021 16:24 12,8 C 17,8 C 12,2 C 55 % 1015,0 hPa 0,0 l/m 15,1 km/h (3 Bft) N-NO 27 2 min 0,6 UV-I 257 W/m 4,0 C 12,8 C 25,7 km/h (4 Bft)
12.10.2021 16:26 12,7 C 18,3 C 12,2 C 57 % 1015,0 hPa 0,0 l/m 9,4 km/h (2 Bft) N 358 2 min 0,6 UV-I 251 W/m 4,4 C 12,7 C 12,9 km/h (3 Bft)
12.10.2021 16:28 12,7 C 17,2 C 12,2 C 57 % 1015,1 hPa 0,0 l/m 7,8 km/h (2 Bft) N 4 2 min 0,6 UV-I 244 W/m 4,4 C 12,7 C 14,5 km/h (3 Bft)
12.10.2021 16:30 12,7 C 15,0 C 12,2 C 58 % 1015,1 hPa 0,0 l/m 9,7 km/h (2 Bft) N 5 2 min 0,6 UV-I 241 W/m 4,7 C 12,7 C 14,5 km/h (3 Bft)
12.10.2021 16:32 12,7 C 13,3 C 12,2 C 56 % 1015,1 hPa 0,0 l/m 7,1 km/h (2 Bft) N-NO 30 2 min 0,6 UV-I 236 W/m 4,2 C 12,7 C 12,9 km/h (3 Bft)
12.10.2021 16:34 12,7 C 12,8 C 12,2 C 55 % 1015,1 hPa 0,0 l/m 10,7 km/h (2 Bft) N 356 2 min 0,6 UV-I 230 W/m 3,9 C 12,7 C 19,3 km/h (3 Bft)
12.10.2021 16:36 12,7 C 12,8 C 12,2 C 55 % 1015,0 hPa 0,0 l/m 11,0 km/h (2 Bft) N 1 2 min 0,6 UV-I 225 W/m 3,9 C 12,7 C 17,7 km/h (3 Bft)
12.10.2021 16:38 12,7 C 12,2 C 12,2 C 56 % 1015,1 hPa 0,0 l/m 6,8 km/h (2 Bft) N-NO 23 2 min 0,5 UV-I 221 W/m 4,2 C 12,7 C 11,3 km/h (2 Bft)
12.10.2021 16:40 12,7 C 12,2 C 12,2 C 56 % 1015,1 hPa 0,0 l/m 5,8 km/h (2 Bft) N 11 2 min 0,5 UV-I 214 W/m 4,2 C 12,7 C 14,5 km/h (3 Bft)
12.10.2021 16:42 12,7 C 11,7 C 12,2 C 56 % 1015,1 hPa 0,0 l/m 7,2 km/h (2 Bft) N 356 2 min 0,5 UV-I 207 W/m 4,2 C 12,7 C 11,3 km/h (2 Bft)
12.10.2021 16:44 12,6 C 11,7 C 12,2 C 57 % 1015,0 hPa 0,0 l/m 8,1 km/h (2 Bft) N-NW 339 2 min 0,5 UV-I 202 W/m 4,3 C 12,6 C 14,5 km/h (3 Bft)
12.10.2021 16:46 12,5 C 11,7 C 12,2 C 57 % 1015,0 hPa 0,0 l/m 8,6 km/h (2 Bft) N 349 2 min 0,5 UV-I 195 W/m 4,2 C 12,5 C 14,5 km/h (3 Bft)
12.10.2021 16:48 12,5 C 11,7 C 12,2 C 58 % 1015,1 hPa 0,0 l/m 11,4 km/h (2 Bft) N-NO 19 2 min 0,5 UV-I 192 W/m 4,5 C 12,5 C 17,7 km/h (3 Bft)
12.10.2021 16:50 12,4 C 11,7 C 12,2 C 57 % 1015,0 hPa 0,0 l/m 10,8 km/h (2 Bft) N-NO 21 2 min 0,5 UV-I 186 W/m 4,1 C 12,4 C 17,7 km/h (3 Bft)
12.10.2021 16:52 12,4 C 11,7 C 12,2 C 57 % 1015,0 hPa 0,0 l/m 9,5 km/h (2 Bft) N-NW 347 2 min 0,5 UV-I 178 W/m 4,1 C 12,4 C 14,5 km/h (3 Bft)
12.10.2021 16:54 12,3 C 11,7 C 12,2 C 57 % 1015,1 hPa 0,0 l/m 11,5 km/h (2 Bft) N 356 2 min 0,5 UV-I 172 W/m 4,0 C 12,3 C 17,7 km/h (3 Bft)
12.10.2021 16:56 12,3 C 11,7 C 12,2 C 57 % 1015,1 hPa 0,0 l/m 9,2 km/h (2 Bft) N 353 2 min 0,0 UV-I 163 W/m 4,0 C 12,3 C 14,5 km/h (3 Bft)
12.10.2021 16:58 12,3 C 11,7 C 12,2 C 57 % 1015,0 hPa 0,0 l/m 8,6 km/h (2 Bft) N-NO 33 2 min 0,0 UV-I 160 W/m 4,0 C 12,3 C 14,5 km/h (3 Bft)
12.10.2021 17:00 12,2 C 11,1 C 12,2 C 56 % 1015,0 hPa 0,0 l/m 13,3 km/h (3 Bft) N-NO 27 2 min 0,0 UV-I 155 W/m 3,7 C 12,2 C 24,1 km/h (4 Bft)
12.10.2021 17:02 12,2 C 11,1 C 12,2 C 58 % 1015,1 hPa 0,0 l/m 8,6 km/h (2 Bft) NO 51 2 min 0,0 UV-I 148 W/m 4,2 C 12,2 C 12,9 km/h (3 Bft)
12.10.2021 17:04 12,1 C 11,1 C 12,2 C 57 % 1015,1 hPa 0,0 l/m 9,8 km/h (2 Bft) N-NO 29 2 min 0,0 UV-I 142 W/m 3,8 C 12,1 C 17,7 km/h (3 Bft)
12.10.2021 17:06 12,2 C 11,1 C 12,2 C 58 % 1015,1 hPa 0,0 l/m 7,6 km/h (2 Bft) NO 45 2 min 0,0 UV-I 139 W/m 4,2 C 12,2 C 11,3 km/h (2 Bft)
12.10.2021 17:08 12,1 C 10,6 C 12,2 C 58 % 1015,1 hPa 0,0 l/m 6,6 km/h (2 Bft) N-NO 17 2 min 0,0 UV-I 132 W/m 4,1 C 12,1 C 16,1 km/h (3 Bft)
12.10.2021 17:10 12,1 C 10,6 C 12,2 C 58 % 1015,1 hPa 0,0 l/m 8,2 km/h (2 Bft) N 356 2 min 0,0 UV-I 127 W/m 4,1 C 12,1 C 14,5 km/h (3 Bft)
12.10.2021 17:12 12,0 C 10,6 C 12,2 C 58 % 1015,2 hPa 0,0 l/m 7,3 km/h (2 Bft) N 2 2 min 0,0 UV-I 121 W/m 4,0 C 12,0 C 11,3 km/h (2 Bft)
12.10.2021 17:14 12,0 C 10,6 C 12,2 C 58 % 1015,2 hPa 0,0 l/m 10,1 km/h (2 Bft) N-NO 25 2 min 0,0 UV-I 114 W/m 4,0 C 12,0 C 14,5 km/h (3 Bft)
12.10.2021 17:16 11,9 C 10,6 C 12,2 C 57 % 1015,2 hPa 0,0 l/m 9,2 km/h (2 Bft) NO 41 2 min 0,0 UV-I 109 W/m 3,7 C 11,9 C 16,1 km/h (3 Bft)
12.10.2021 17:18 11,9 C 10,6 C 12,2 C 58 % 1015,2 hPa 0,0 l/m 10,7 km/h (2 Bft) O 79 2 min 0,0 UV-I 104 W/m 3,9 C 11,9 C 17,7 km/h (3 Bft)
12.10.2021 17:20 11,8 C 10,6 C 12,2 C 58 % 1015,1 hPa 0,0 l/m 8,3 km/h (2 Bft) NO 51 2 min 0,0 UV-I 97 W/m 3,8 C 11,8 C 17,7 km/h (3 Bft)
12.10.2021 17:22 11,6 C 10,0 C 12,2 C 59 % 1015,1 hPa 0,0 l/m 5,8 km/h (2 Bft) N-NO 20 2 min 0,0 UV-I 93 W/m 3,9 C 11,6 C 9,7 km/h (2 Bft)
12.10.2021 17:24 11,6 C 10,0 C 12,2 C 58 % 1015,2 hPa 0,0 l/m 8,5 km/h (2 Bft) N 6 2 min 0,0 UV-I 88 W/m 3,6 C 11,6 C 12,9 km/h (3 Bft)
12.10.2021 17:26 11,6 C 10,0 C 12,2 C 59 % 1015,2 hPa 0,0 l/m 7,5 km/h (2 Bft) N-NO 17 2 min 0,0 UV-I 83 W/m 3,9 C 11,6 C 12,9 km/h (3 Bft)
12.10.2021 17:28 11,6 C 10,0 C 12,2 C 59 % 1015,1 hPa 0,0 l/m 4,9 km/h (1 Bft) N-NO 33 2 min 0,0 UV-I 72 W/m 3,9 C 11,6 C 11,3 km/h (2 Bft)
12.10.2021 17:30 11,4 C 9,4 C 12,2 C 60 % 1015,2 hPa 0,0 l/m 7,9 km/h (2 Bft) N 4 0 min 0,0 UV-I 46 W/m 3,9 C 11,4 C 12,9 km/h (3 Bft)
12.10.2021 17:32 11,4 C 9,4 C 12,2 C 60 % 1015,2 hPa 0,0 l/m 6,8 km/h (2 Bft) N 1 0 min 0,0 UV-I 28 W/m 3,9 C 11,4 C 16,1 km/h (3 Bft)
12.10.2021 17:34 11,3 C 9,4 C 12,2 C 60 % 1015,2 hPa 0,0 l/m 11,2 km/h (2 Bft) N 357 0 min 0,0 UV-I 26 W/m 3,8 C 11,3 C 17,7 km/h (3 Bft)
12.10.2021 17:36 11,3 C 9,4 C 12,2 C 60 % 1015,3 hPa 0,0 l/m 10,9 km/h (2 Bft) N-NO 12 0 min 0,0 UV-I 26 W/m 3,8 C 11,3 C 17,7 km/h (3 Bft)
12.10.2021 17:38 11,2 C 9,4 C 12,2 C 61 % 1015,2 hPa 0,0 l/m 5,9 km/h (2 Bft) NO 38 0 min 0,0 UV-I 25 W/m 4,0 C 11,2 C 14,5 km/h (3 Bft)
12.10.2021 17:40 11,2 C 9,4 C 12,2 C 60 % 1015,3 hPa 0,0 l/m 7,8 km/h (2 Bft) N-NW 344 0 min 0,0 UV-I 25 W/m 3,7 C 11,2 C 14,5 km/h (3 Bft)
12.10.2021 17:42 11,2 C 9,4 C 12,2 C 60 % 1015,3 hPa 0,0 l/m 9,0 km/h (2 Bft) N 1 0 min 0,0 UV-I 23 W/m 3,7 C 11,2 C 14,5 km/h (3 Bft)
12.10.2021 17:44 11,2 C 9,4 C 12,2 C 60 % 1015,3 hPa 0,0 l/m 8,5 km/h (2 Bft) N 7 0 min 0,0 UV-I 23 W/m 3,7 C 11,2 C 12,9 km/h (3 Bft)
12.10.2021 17:46 11,2 C 9,4 C 12,2 C 60 % 1015,3 hPa 0,0 l/m 9,3 km/h (2 Bft) N-NO 21 0 min 0,0 UV-I 23 W/m 3,7 C 11,2 C 16,1 km/h (3 Bft)
12.10.2021 17:48 11,1 C 9,4 C 12,2 C 61 % 1015,3 hPa 0,0 l/m 8,6 km/h (2 Bft) N 352 0 min 0,0 UV-I 21 W/m 3,9 C 11,1 C 14,5 km/h (3 Bft)
12.10.2021 17:50 11,1 C 9,4 C 12,2 C 61 % 1015,4 hPa 0,0 l/m 7,0 km/h (2 Bft) N 2 0 min 0,0 UV-I 21 W/m 3,9 C 11,1 C 12,9 km/h (3 Bft)
12.10.2021 17:52 10,9 C 8,9 C 12,2 C 62 % 1015,4 hPa 0,0 l/m 7,4 km/h (2 Bft) N 356 0 min 0,0 UV-I 19 W/m 3,9 C 10,9 C 12,9 km/h (3 Bft)
12.10.2021 17:54 10,9 C 8,9 C 12,2 C 62 % 1015,4 hPa 0,0 l/m 5,1 km/h (1 Bft) N 7 0 min 0,0 UV-I 19 W/m 3,9 C 10,9 C 9,7 km/h (2 Bft)
12.10.2021 17:56 10,8 C 8,3 C 12,2 C 63 % 1015,4 hPa 0,0 l/m 6,5 km/h (2 Bft) NO 37 0 min 0,0 UV-I 18 W/m 4,0 C 10,8 C 9,7 km/h (2 Bft)
12.10.2021 17:58 10,7 C 8,3 C 12,2 C 63 % 1015,5 hPa 0,0 l/m 4,9 km/h (1 Bft) N 357 0 min 0,0 UV-I 18 W/m 3,9 C 10,7 C 8,0 km/h (2 Bft)
12.10.2021 18:00 10,6 C 8,3 C 12,2 C 64 % 1015,5 hPa 0,0 l/m 2,5 km/h (1 Bft) NO 37 0 min 0,0 UV-I 18 W/m 4,1 C 10,6 C 4,8 km/h (1 Bft)
12.10.2021 18:02 10,4 C 7,8 C 12,2 C 65 % 1015,5 hPa 0,0 l/m 3,4 km/h (1 Bft) NO 44 0 min 0,0 UV-I 16 W/m 4,1 C 10,4 C 6,4 km/h (2 Bft)
12.10.2021 18:04 10,2 C 7,2 C 12,2 C 66 % 1015,5 hPa 0,0 l/m 2,9 km/h (1 Bft) N 354 0 min 0,0 UV-I 16 W/m 4,1 C 10,2 C 6,4 km/h (2 Bft)
12.10.2021 18:06 10,1 C 7,2 C 12,2 C 67 % 1015,6 hPa 0,0 l/m 3,1 km/h (1 Bft) N-NW 348 0 min 0,0 UV-I 14 W/m 4,3 C 10,1 C 4,8 km/h (1 Bft)
12.10.2021 18:08 10,1 C 7,2 C 12,2 C 67 % 1015,7 hPa 0,0 l/m 3,3 km/h (1 Bft) N 355 0 min 0,0 UV-I 14 W/m 4,3 C 10,1 C 4,8 km/h (1 Bft)
12.10.2021 18:10 10,0 C 6,7 C 12,2 C 67 % 1015,6 hPa 0,0 l/m 4,2 km/h (1 Bft) N 356 2 min 0,0 UV-I 12 W/m 4,2 C 10,0 C 8,0 km/h (2 Bft)
12.10.2021 18:12 10,0 C 6,7 C 12,2 C 67 % 1015,7 hPa 0,0 l/m 4,1 km/h (1 Bft) N 358 2 min 0,0 UV-I 12 W/m 4,2 C 10,0 C 8,0 km/h (2 Bft)
12.10.2021 18:14 9,9 C 6,7 C 12,2 C 68 % 1015,7 hPa 0,0 l/m 3,8 km/h (1 Bft) N-NW 342 0 min 0,0 UV-I 11 W/m 4,3 C 9,9 C 6,4 km/h (2 Bft)
12.10.2021 18:16 9,8 C 6,7 C 12,2 C 68 % 1015,7 hPa 0,0 l/m 5,0 km/h (1 Bft) N-NO 15 0 min 0,0 UV-I 11 W/m 4,2 C 9,5 C 8,0 km/h (2 Bft)
12.10.2021 18:18 9,8 C 6,7 C 12,2 C 68 % 1015,7 hPa 0,0 l/m 4,2 km/h (1 Bft) N 359 0 min 0,0 UV-I 9 W/m 4,2 C 9,8 C 6,4 km/h (2 Bft)
12.10.2021 18:20 9,7 C 6,7 C 12,2 C 68 % 1015,8 hPa 0,0 l/m 4,4 km/h (1 Bft) N 5 0 min 0,0 UV-I 9 W/m 4,1 C 9,7 C 8,0 km/h (2 Bft)
12.10.2021 18:22 9,7 C 6,7 C 12,2 C 68 % 1015,8 hPa 0,0 l/m 5,1 km/h (1 Bft) N 2 0 min 0,0 UV-I 7 W/m 4,1 C 9,4 C 9,7 km/h (2 Bft)
12.10.2021 18:24 9,7 C 6,7 C 12,2 C 68 % 1015,8 hPa 0,0 l/m 5,5 km/h (2 Bft) N 1 0 min 0,0 UV-I 7 W/m 4,1 C 9,3 C 9,7 km/h (2 Bft)
12.10.2021 18:26 9,6 C 6,7 C 12,2 C 68 % 1015,8 hPa 0,0 l/m 3,5 km/h (1 Bft) N 10 0 min 0,0 UV-I 7 W/m 4,0 C 9,6 C 6,4 km/h (2 Bft)
12.10.2021 18:28 9,6 C 6,7 C 12,2 C 68 % 1015,9 hPa 0,0 l/m 4,7 km/h (1 Bft) N-NW 348 0 min 0,0 UV-I 5 W/m 4,0 C 9,4 C 8,0 km/h (2 Bft)
12.10.2021 18:30 9,6 C 6,7 C 12,2 C 68 % 1015,9 hPa 0,0 l/m 3,6 km/h (1 Bft) N 357 0 min 0,0 UV-I 5 W/m 4,0 C 9,6 C 6,4 km/h (2 Bft)
12.10.2021 18:32 9,5 C 6,1 C 12,2 C 69 % 1015,9 hPa 0,0 l/m 2,7 km/h (1 Bft) N 352 0 min 0,0 UV-I 5 W/m 4,1 C 9,5 C 6,4 km/h (2 Bft)
12.10.2021 18:34 9,3 C 5,6 C 12,2 C 69 % 1015,9 hPa 0,0 l/m 3,6 km/h (1 Bft) N 4 0 min 0,0 UV-I 0 W/m 3,9 C 9,3 C 6,4 km/h (2 Bft)
12.10.2021 18:36 9,2 C 5,6 C 12,2 C 70 % 1015,9 hPa 0,0 l/m 1,7 km/h (1 Bft) N 360 0 min 0,0 UV-I 0 W/m 4,0 C 9,2 C 3,2 km/h (1 Bft)
12.10.2021 18:38 9,0 C 5,0 C 12,2 C 71 % 1015,9 hPa 0,0 l/m 1,7 km/h (1 Bft) N 360 0 min 0,0 UV-I 0 W/m 4,0 C 9,0 C 3,2 km/h (1 Bft)
12.10.2021 18:40 8,7 C 5,0 C 12,2 C 72 % 1015,9 hPa 0,0 l/m 1,9 km/h (1 Bft) N 351 0 min 0,0 UV-I 0 W/m 3,9 C 8,7 C 6,4 km/h (2 Bft)
12.10.2021 18:42 8,5 C 4,4 C 12,2 C 73 % 1016,0 hPa 0,0 l/m 1,6 km/h (1 Bft) N 351 0 min 0,0 UV-I 0 W/m 3,9 C 8,5 C 3,2 km/h (1 Bft)
12.10.2021 18:44 8,3 C 4,4 C 12,2 C 74 % 1016,0 hPa 0,0 l/m 2,1 km/h (1 Bft) N 353 0 min 0,0 UV-I 0 W/m 3,9 C 8,3 C 3,2 km/h (1 Bft)
12.10.2021 18:46 8,0 C 3,9 C 12,2 C 75 % 1016,0 hPa 0,0 l/m 1,6 km/h (1 Bft) N-NW 344 0 min 0,0 UV-I 0 W/m 3,8 C 8,0 C 3,2 km/h (1 Bft)
12.10.2021 18:48 7,8 C 3,9 C 12,2 C 76 % 1016,1 hPa 0,0 l/m 1,4 km/h (1 Bft) N-NW 344 0 min 0,0 UV-I 0 W/m 3,8 C 7,8 C 3,2 km/h (1 Bft)
12.10.2021 18:50 7,6 C 3,9 C 12,2 C 77 % 1016,1 hPa 0,0 l/m 1,4 km/h (1 Bft) N-NW 344 0 min 0,0 UV-I 0 W/m 3,8 C 7,6 C 3,2 km/h (1 Bft)
12.10.2021 18:52 7,6 C 3,3 C 12,2 C 77 % 1016,1 hPa 0,0 l/m 1,4 km/h (1 Bft) N-NW 344 0 min 0,0 UV-I 0 W/m 3,8 C 7,6 C 3,2 km/h (1 Bft)
12.10.2021 18:54 7,4 C 3,3 C 12,2 C 78 % 1016,1 hPa 0,0 l/m 2,0 km/h (1 Bft) N-NW 344 0 min 0,0 UV-I 0 W/m 3,8 C 7,4 C 4,8 km/h (1 Bft)
12.10.2021 18:56 7,3 C 3,3 C 12,2 C 78 % 1016,1 hPa 0,0 l/m 1,6 km/h (1 Bft) N-NW 344 0 min 0,0 UV-I 0 W/m 3,7 C 7,3 C 3,2 km/h (1 Bft)
12.10.2021 18:58 7,2 C 3,3 C 12,2 C 78 % 1016,1 hPa 0,0 l/m 1,9 km/h (1 Bft) N-NW 344 0 min 0,0 UV-I 0 W/m 3,6 C 7,2 C 3,2 km/h (1 Bft)
12.10.2021 19:00 7,1 C 3,3 C 12,2 C 79 % 1016,2 hPa 0,0 l/m 1,3 km/h (1 Bft) N-NW 348 0 min 0,0 UV-I 0 W/m 3,7 C 7,1 C 3,2 km/h (1 Bft)
12.10.2021 19:02 6,9 C 2,8 C 12,2 C 79 % 1016,2 hPa 0,0 l/m 1,2 km/h (1 Bft) N-NW 348 0 min 0,0 UV-I 0 W/m 3,5 C 6,9 C 3,2 km/h (1 Bft)
12.10.2021 19:04 6,8 C 2,8 C 12,2 C 80 % 1016,2 hPa 0,0 l/m 1,2 km/h (1 Bft) N-NW 348 0 min 0,0 UV-I 0 W/m 3,6 C 6,8 C 3,2 km/h (1 Bft)
12.10.2021 19:06 6,7 C 2,8 C 12,2 C 80 % 1016,2 hPa 0,0 l/m 1,4 km/h (1 Bft) N 358 0 min 0,0 UV-I 0 W/m 3,5 C 6,7 C 3,2 km/h (1 Bft)
12.10.2021 19:08 6,6 C 2,8 C 12,2 C 81 % 1016,2 hPa 0,0 l/m 1,1 km/h (1 Bft) N 358 0 min 0,0 UV-I 0 W/m 3,6 C 6,6 C 3,2 km/h (1 Bft)
12.10.2021 19:10 6,4 C 2,8 C 12,2 C 81 % 1016,3 hPa 0,0 l/m 1,2 km/h (1 Bft) N 358 0 min 0,0 UV-I 0 W/m 3,4 C 6,4 C 3,2 km/h (1 Bft)
12.10.2021 19:12 6,3 C 2,8 C 12,2 C 81 % 1016,3 hPa 0,0 l/m 1,6 km/h (1 Bft) N 358 0 min 0,0 UV-I 0 W/m 3,3 C 6,3 C 3,2 km/h (1 Bft)
12.10.2021 19:14 6,3 C 2,8 C 12,2 C 82 % 1016,3 hPa 0,0 l/m 2,4 km/h (1 Bft) N 358 0 min 0,0 UV-I 0 W/m 3,5 C 6,3 C 4,8 km/h (1 Bft)
12.10.2021 19:16 6,2 C 2,8 C 11,7 C 82 % 1016,4 hPa 0,0 l/m 2,5 km/h (1 Bft) N-NW 348 0 min 0,0 UV-I 0 W/m 3,4 C 6,2 C 4,8 km/h (1 Bft)
12.10.2021 19:18 6,1 C 2,8 C 12,2 C 82 % 1016,4 hPa 0,0 l/m 2,0 km/h (1 Bft) N-NW 348 0 min 0,0 UV-I 0 W/m 3,3 C 6,1 C 3,2 km/h (1 Bft)
12.10.2021 19:20 6,1 C 2,2 C 11,7 C 82 % 1016,4 hPa 0,0 l/m 1,5 km/h (1 Bft) N-NW 348 0 min 0,0 UV-I 0 W/m 3,3 C 6,1 C 3,2 km/h (1 Bft)
12.10.2021 19:22 6,1 C 2,2 C 12,2 C 83 % 1016,4 hPa 0,0 l/m 2,1 km/h (1 Bft) N-NW 348 0 min 0,0 UV-I 0 W/m 3,4 C 6,1 C 3,2 km/h (1 Bft)
12.10.2021 19:24 6,0 C 2,2 C 12,2 C 83 % 1016,5 hPa 0,0 l/m 1,8 km/h (1 Bft) N 355 0 min 0,0 UV-I 0 W/m 3,3 C 6,0 C 3,2 km/h (1 Bft)
12.10.2021 19:26 5,9 C 2,2 C 12,2 C 83 % 1016,5 hPa 0,0 l/m 2,3 km/h (1 Bft) N 354 0 min 0,0 UV-I 0 W/m 3,2 C 5,9 C 4,8 km/h (1 Bft)
12.10.2021 19:28 5,9 C 2,2 C 12,2 C 83 % 1016,5 hPa 0,0 l/m 2,6 km/h (1 Bft) N 354 0 min 0,0 UV-I 0 W/m 3,2 C 5,9 C 4,8 km/h (1 Bft)
12.10.2021 19:30 5,8 C 2,2 C 12,2 C 83 % 1016,5 hPa 0,0 l/m 2,9 km/h (1 Bft) N 354 0 min 0,0 UV-I 0 W/m 3,1 C 5,8 C 4,8 km/h (1 Bft)
12.10.2021 19:32 5,8 C 2,2 C 12,2 C 83 % 1016,6 hPa 0,0 l/m 3,4 km/h (1 Bft) N 354 0 min 0,0 UV-I 0 W/m 3,1 C 5,8 C 4,8 km/h (1 Bft)
12.10.2021 19:34 5,9 C 2,2 C 12,2 C 83 % 1016,6 hPa 0,0 l/m 4,1 km/h (1 Bft) N 2 0 min 0,0 UV-I 0 W/m 3,2 C 5,9 C 6,4 km/h (2 Bft)
12.10.2021 19:36 5,8 C 2,2 C 12,2 C 83 % 1016,6 hPa 0,0 l/m 3,9 km/h (1 Bft) N 351 0 min 0,0 UV-I 0 W/m 3,1 C 5,8 C 6,4 km/h (2 Bft)
12.10.2021 19:38 5,9 C 2,2 C 12,2 C 84 % 1016,6 hPa 0,0 l/m 3,3 km/h (1 Bft) N 358 0 min 0,0 UV-I 0 W/m 3,4 C 5,9 C 4,8 km/h (1 Bft)
12.10.2021 19:40 5,8 C 2,2 C 11,7 C 83 % 1016,6 hPa 0,0 l/m 3,6 km/h (1 Bft) N 352 0 min 0,0 UV-I 0 W/m 3,1 C 5,8 C 6,4 km/h (2 Bft)
12.10.2021 19:42 5,8 C 2,2 C 12,2 C 83 % 1016,6 hPa 0,0 l/m 2,6 km/h (1 Bft) N 353 0 min 0,0 UV-I 0 W/m 3,1 C 5,8 C 4,8 km/h (1 Bft)
12.10.2021 19:44 5,8 C 2,2 C 11,7 C 83 % 1016,6 hPa 0,0 l/m 2,6 km/h (1 Bft) N-NW 348 0 min 0,0 UV-I 0 W/m 3,1 C 5,8 C 4,8 km/h (1 Bft)
12.10.2021 19:46 5,8 C 2,2 C 11,7 C 83 % 1016,6 hPa 0,0 l/m 1,3 km/h (1 Bft) N-NW 348 0 min 0,0 UV-I 0 W/m 3,1 C 5,8 C 3,2 km/h (1 Bft)
12.10.2021 19:48 5,7 C 2,2 C 12,2 C 83 % 1016,6 hPa 0,0 l/m 1,7 km/h (1 Bft) N-NW 348 0 min 0,0 UV-I 0 W/m 3,0 C 5,7 C 3,2 km/h (1 Bft)
12.10.2021 19:50 5,7 C 2,2 C 11,7 C 84 % 1016,6 hPa 0,0 l/m 3,0 km/h (1 Bft) N 5 0 min 0,0 UV-I 0 W/m 3,2 C 5,7 C 4,8 km/h (1 Bft)
12.10.2021 19:52 5,6 C 1,7 C 12,2 C 84 % 1016,7 hPa 0,0 l/m 3,1 km/h (1 Bft) N 8 0 min 0,0 UV-I 0 W/m 3,1 C 5,6 C 4,8 km/h (1 Bft)
12.10.2021 19:54 5,6 C 2,2 C 12,2 C 84 % 1016,7 hPa 0,0 l/m 3,6 km/h (1 Bft) N 2 0 min 0,0 UV-I 0 W/m 3,1 C 5,6 C 4,8 km/h (1 Bft)
12.10.2021 19:56 5,6 C 2,2 C 11,7 C 84 % 1016,7 hPa 0,0 l/m 3,9 km/h (1 Bft) N 354 0 min 0,0 UV-I 0 W/m 3,1 C 5,6 C 6,4 km/h (2 Bft)
12.10.2021 19:58 5,7 C 2,2 C 11,7 C 84 % 1016,7 hPa 0,0 l/m 4,3 km/h (1 Bft) N 2 0 min 0,0 UV-I 0 W/m 3,2 C 5,7 C 6,4 km/h (2 Bft)
12.10.2021 20:00 5,8 C 2,8 C 11,7 C 84 % 1016,7 hPa 0,0 l/m 4,0 km/h (1 Bft) N 6 0 min 0,0 UV-I 0 W/m 3,3 C 5,8 C 6,4 km/h (2 Bft)
12.10.2021 20:02 5,9 C 2,8 C 11,7 C 84 % 1016,7 hPa 0,0 l/m 3,7 km/h (1 Bft) N 4 0 min 0,0 UV-I 0 W/m 3,4 C 5,9 C 6,4 km/h (2 Bft)
12.10.2021 20:04 6,1 C 2,8 C 12,2 C 84 % 1016,8 hPa 0,0 l/m 3,5 km/h (1 Bft) N 5 0 min 0,0 UV-I 0 W/m 3,6 C 6,1 C 4,8 km/h (1 Bft)
12.10.2021 20:06 6,2 C 2,8 C 11,7 C 83 % 1016,8 hPa 0,0 l/m 4,0 km/h (1 Bft) N-NW 346 0 min 0,0 UV-I 0 W/m 3,5 C 6,2 C 6,4 km/h (2 Bft)
12.10.2021 20:08 6,2 C 3,3 C 12,2 C 83 % 1016,7 hPa 0,0 l/m 3,9 km/h (1 Bft) N 7 0 min 0,0 UV-I 0 W/m 3,5 C 6,2 C 6,4 km/h (2 Bft)
12.10.2021 20:10 6,2 C 3,3 C 11,7 C 83 % 1016,8 hPa 0,0 l/m 3,5 km/h (1 Bft) N 354 0 min 0,0 UV-I 0 W/m 3,5 C 6,2 C 4,8 km/h (1 Bft)
12.10.2021 20:12 6,3 C 3,3 C 11,7 C 83 % 1016,8 hPa 0,0 l/m 3,6 km/h (1 Bft) N-NW 347 0 min 0,0 UV-I 0 W/m 3,6 C 6,3 C 4,8 km/h (1 Bft)
12.10.2021 20:14 6,3 C 3,9 C 11,7 C 82 % 1016,9 hPa 0,0 l/m 3,4 km/h (1 Bft) N-NW 337 0 min 0,0 UV-I 0 W/m 3,5 C 6,3 C 4,8 km/h (1 Bft)
12.10.2021 20:16 6,4 C 3,9 C 11,7 C 82 % 1016,9 hPa 0,0 l/m 4,0 km/h (1 Bft) N-NW 346 0 min 0,0 UV-I 0 W/m 3,6 C 6,4 C 4,8 km/h (1 Bft)
12.10.2021 20:18 6,4 C 3,9 C 11,7 C 82 % 1016,9 hPa 0,0 l/m 4,2 km/h (1 Bft) N-NW 341 0 min 0,0 UV-I 0 W/m 3,6 C 6,4 C 6,4 km/h (2 Bft)
12.10.2021 20:20 6,5 C 3,9 C 11,7 C 82 % 1016,9 hPa 0,0 l/m 4,5 km/h (1 Bft) N-NW 344 0 min 0,0 UV-I 0 W/m 3,7 C 6,5 C 6,4 km/h (2 Bft)
12.10.2021 20:22 6,5 C 3,9 C 11,7 C 82 % 1016,9 hPa 0,0 l/m 3,3 km/h (1 Bft) N-NW 346 0 min 0,0 UV-I 0 W/m 3,7 C 6,5 C 4,8 km/h (1 Bft)
12.10.2021 20:24 6,5 C 3,9 C 11,7 C 82 % 1017,0 hPa 0,0 l/m 2,7 km/h (1 Bft) N-NW 348 0 min 0,0 UV-I 0 W/m 3,7 C 6,5 C 4,8 km/h (1 Bft)
12.10.2021 20:26 6,5 C 3,9 C 11,7 C 81 % 1017,0 hPa 0,0 l/m 3,0 km/h (1 Bft) N 351 0 min 0,0 UV-I 0 W/m 3,5 C 6,5 C 4,8 km/h (1 Bft)
12.10.2021 20:28 6,5 C 3,9 C 11,7 C 82 % 1017,0 hPa 0,0 l/m 3,6 km/h (1 Bft) N 351 0 min 0,0 UV-I 0 W/m 3,7 C 6,5 C 6,4 km/h (2 Bft)
12.10.2021 20:30 6,5 C 3,9 C 11,7 C 81 % 1017,0 hPa 0,0 l/m 3,0 km/h (1 Bft) N-NW 344 0 min 0,0 UV-I 0 W/m 3,5 C 6,5 C 4,8 km/h (1 Bft)
12.10.2021 20:32 6,5 C 3,9 C 11,7 C 82 % 1017,1 hPa 0,0 l/m 3,5 km/h (1 Bft) N 352 0 min 0,0 UV-I 0 W/m 3,7 C 6,5 C 6,4 km/h (2 Bft)
12.10.2021 20:34 6,5 C 3,9 C 11,7 C 81 % 1017,1 hPa 0,0 l/m 3,3 km/h (1 Bft) N 353 0 min 0,0 UV-I 0 W/m 3,5 C 6,5 C 6,4 km/h (2 Bft)
12.10.2021 20:36 6,6 C 3,9 C 11,7 C 82 % 1017,1 hPa 0,0 l/m 2,9 km/h (1 Bft) N 352 0 min 0,0 UV-I 0 W/m 3,8 C 6,6 C 4,8 km/h (1 Bft)
12.10.2021 20:38 6,6 C 3,9 C 11,7 C 81 % 1017,1 hPa 0,0 l/m 2,9 km/h (1 Bft) N-NW 343 0 min 0,0 UV-I 0 W/m 3,6 C 6,6 C 6,4 km/h (2 Bft)
12.10.2021 20:40 6,5 C 3,9 C 11,7 C 81 % 1017,1 hPa 0,0 l/m 2,1 km/h (1 Bft) N-NW 339 0 min 0,0 UV-I 0 W/m 3,5 C 6,5 C 4,8 km/h (1 Bft)
12.10.2021 20:42 6,5 C 3,9 C 11,7 C 81 % 1017,2 hPa 0,0 l/m 1,3 km/h (1 Bft) N-NW 339 0 min 0,0 UV-I 0 W/m 3,5 C 6,5 C 3,2 km/h (1 Bft)
12.10.2021 20:44 6,5 C 3,9 C 11,7 C 81 % 1017,2 hPa 0,0 l/m 2,6 km/h (1 Bft) N-NW 334 0 min 0,0 UV-I 0 W/m 3,5 C 6,5 C 4,8 km/h (1 Bft)
12.10.2021 20:46 6,4 C 3,9 C 11,7 C 82 % 1017,2 hPa 0,0 l/m 2,7 km/h (1 Bft) N-NW 347 0 min 0,0 UV-I 0 W/m 3,6 C 6,4 C 4,8 km/h (1 Bft)
12.10.2021 20:48 6,4 C 3,9 C 11,7 C 82 % 1017,2 hPa 0,0 l/m 2,3 km/h (1 Bft) N 354 0 min 0,0 UV-I 0 W/m 3,6 C 6,4 C 4,8 km/h (1 Bft)
12.10.2021 20:50 6,3 C 3,9 C 11,7 C 82 % 1017,2 hPa 0,0 l/m 1,4 km/h (1 Bft) N 354 0 min 0,0 UV-I 0 W/m 3,5 C 6,3 C 3,2 km/h (1 Bft)
12.10.2021 20:52 6,3 C 3,9 C 11,7 C 82 % 1017,3 hPa 0,0 l/m 0,8 km/h (0 Bft) N 354 0 min 0,0 UV-I 0 W/m 3,5 C 6,3 C 3,2 km/h (1 Bft)
12.10.2021 20:54 6,3 C 3,9 C 11,7 C 83 % 1017,3 hPa 0,0 l/m 0,3 km/h (0 Bft) N 354 0 min 0,0 UV-I 0 W/m 3,6 C 6,3 C 1,6 km/h (1 Bft)
12.10.2021 20:56 6,2 C 3,9 C 11,7 C 83 % 1017,3 hPa 0,0 l/m 0,3 km/h (0 Bft) N 354 0 min 0,0 UV-I 0 W/m 3,5 C 6,2 C 1,6 km/h (1 Bft)
12.10.2021 20:58 6,2 C 3,9 C 11,7 C 83 % 1017,4 hPa 0,0 l/m 0,8 km/h (0 Bft) N 354 0 min 0,0 UV-I 0 W/m 3,5 C 6,2 C 1,6 km/h (1 Bft)
12.10.2021 21:00 6,3 C 3,9 C 11,7 C 83 % 1017,4 hPa 0,0 l/m 0,8 km/h (0 Bft) N 354 0 min 0,0 UV-I 0 W/m 3,6 C 6,3 C 1,6 km/h (1 Bft)
12.10.2021 21:02 6,3 C 3,9 C 11,7 C 83 % 1017,4 hPa 0,0 l/m 0,6 km/h (0 Bft) N 354 0 min 0,0 UV-I 0 W/m 3,6 C 6,3 C 3,2 km/h (1 Bft)
12.10.2021 21:04 6,3 C 4,4 C 11,7 C 83 % 1017,4 hPa 0,0 l/m 0,5 km/h (0 Bft) N 354 0 min 0,0 UV-I 0 W/m 3,6 C 6,3 C 3,2 km/h (1 Bft)
12.10.2021 21:06 6,4 C 4,4 C 11,7 C 83 % 1017,4 hPa 0,0 l/m 0,0 km/h (0 Bft) N 354 0 min 0,0 UV-I 0 W/m 3,7 C 6,4 C 1,6 km/h (1 Bft)
12.10.2021 21:08 6,3 C 4,4 C 11,7 C 83 % 1017,4 hPa 0,0 l/m 0,0 km/h (0 Bft) N 354 0 min 0,0 UV-I 0 W/m 3,6 C 6,3 C 1,6 km/h (1 Bft)
12.10.2021 21:10 6,3 C 4,4 C 11,7 C 83 % 1017,4 hPa 0,0 l/m 0,2 km/h (0 Bft) N 354 0 min 0,0 UV-I 0 W/m 3,6 C 6,3 C 1,6 km/h (1 Bft)
12.10.2021 21:12 6,3 C 4,4 C 11,7 C 83 % 1017,5 hPa 0,0 l/m 0,0 km/h (0 Bft) N 354 0 min 0,0 UV-I 0 W/m 3,6 C 6,3 C 0,0 km/h (0 Bft)
12.10.2021 21:14 6,3 C 4,4 C 11,7 C 83 % 1017,5 hPa 0,0 l/m 0,0 km/h (0 Bft) N 354 0 min 0,0 UV-I 0 W/m 3,6 C 6,3 C 0,0 km/h (0 Bft)
12.10.2021 21:16 6,3 C 4,4 C 11,7 C 83 % 1017,5 hPa 0,0 l/m 0,0 km/h (0 Bft) N 354 0 min 0,0 UV-I 0 W/m 3,6 C 6,3 C 0,0 km/h (0 Bft)
12.10.2021 21:18 6,2 C 4,4 C 11,7 C 83 % 1017,5 hPa 0,0 l/m 0,1 km/h (0 Bft) N 354 0 min 0,0 UV-I 0 W/m 3,5 C 6,2 C 1,6 km/h (1 Bft)
12.10.2021 21:20 6,2 C 4,4 C 11,7 C 83 % 1017,5 hPa 0,0 l/m 0,0 km/h (0 Bft) N 354 0 min 0,0 UV-I 0 W/m 3,5 C 6,2 C 0,0 km/h (0 Bft)
12.10.2021 21:22 6,2 C 4,4 C 11,7 C 84 % 1017,5 hPa 0,0 l/m 0,0 km/h (0 Bft) N 354 0 min 0,0 UV-I 0 W/m 3,7 C 6,2 C 1,6 km/h (1 Bft)
12.10.2021 21:24 6,1 C 4,4 C 11,7 C 84 % 1017,4 hPa 0,0 l/m 0,0 km/h (0 Bft) N 354 0 min 0,0 UV-I 0 W/m 3,6 C 6,1 C 0,0 km/h (0 Bft)
12.10.2021 21:26 6,1 C 4,4 C 11,7 C 84 % 1017,5 hPa 0,0 l/m 0,0 km/h (0 Bft) N 354 0 min 0,0 UV-I 0 W/m 3,6 C 6,1 C 0,0 km/h (0 Bft)
12.10.2021 21:28 6,1 C 4,4 C 11,7 C 84 % 1017,5 hPa 0,0 l/m 0,0 km/h (0 Bft) N 354 0 min 0,0 UV-I 0 W/m 3,6 C 6,1 C 0,0 km/h (0 Bft)
12.10.2021 21:30 6,1 C 4,4 C 11,7 C 84 % 1017,5 hPa 0,0 l/m 0,0 km/h (0 Bft) N 354 0 min 0,0 UV-I 0 W/m 3,6 C 6,1 C 0,0 km/h (0 Bft)
12.10.2021 21:32 6,1 C 4,4 C 11,7 C 84 % 1017,5 hPa 0,0 l/m 0,0 km/h (0 Bft) N 354 0 min 0,0 UV-I 0 W/m 3,6 C 6,1 C 0,0 km/h (0 Bft)
12.10.2021 21:34 6,1 C 4,4 C 11,7 C 84 % 1017,5 hPa 0,0 l/m 0,3 km/h (0 Bft) N 354 0 min 0,0 UV-I 0 W/m 3,6 C 6,1 C 1,6 km/h (1 Bft)
12.10.2021 21:36 6,2 C 4,4 C 11,7 C 85 % 1017,5 hPa 0,0 l/m 0,3 km/h (0 Bft) N 354 0 min 0,0 UV-I 0 W/m 3,9 C 6,2 C 1,6 km/h (1 Bft)
12.10.2021 21:38 6,2 C 4,4 C 11,7 C 85 % 1017,6 hPa 0,0 l/m 0,3 km/h (0 Bft) N 354 0 min 0,0 UV-I 0 W/m 3,9 C 6,2 C 1,6 km/h (1 Bft)
12.10.2021 21:40 6,2 C 5,0 C 11,7 C 85 % 1017,6 hPa 0,0 l/m 0,9 km/h (0 Bft) N 354 0 min 0,0 UV-I 0 W/m 3,9 C 6,2 C 1,6 km/h (1 Bft)
12.10.2021 21:42 6,2 C 5,0 C 11,7 C 85 % 1017,6 hPa 0,0 l/m 0,7 km/h (0 Bft) N 354 0 min 0,0 UV-I 0 W/m 3,9 C 6,2 C 1,6 km/h (1 Bft)
12.10.2021 21:44 6,2 C 4,4 C 11,7 C 85 % 1017,7 hPa 0,0 l/m 0,8 km/h (0 Bft) N 354 0 min 0,0 UV-I 0 W/m 3,9 C 6,2 C 3,2 km/h (1 Bft)
12.10.2021 21:46 6,2 C 4,4 C 11,7 C 85 % 1017,8 hPa 0,0 l/m 0,3 km/h (0 Bft) N 354 0 min 0,0 UV-I 0 W/m 3,9 C 6,2 C 1,6 km/h (1 Bft)
12.10.2021 21:48 6,2 C 4,4 C 11,7 C 85 % 1017,8 hPa 0,0 l/m 0,2 km/h (0 Bft) N 354 0 min 0,0 UV-I 0 W/m 3,9 C 6,2 C 1,6 km/h (1 Bft)
12.10.2021 21:50 6,2 C 4,4 C 11,7 C 85 % 1017,8 hPa 0,0 l/m 0,0 km/h (0 Bft) N 354 0 min 0,0 UV-I 0 W/m 3,9 C 6,2 C 1,6 km/h (1 Bft)
12.10.2021 21:52 6,1 C 3,9 C 11,7 C 85 % 1017,8 hPa 0,0 l/m 0,0 km/h (0 Bft) N 354 0 min 0,0 UV-I 0 W/m 3,8 C 6,1 C 1,6 km/h (1 Bft)
12.10.2021 21:54 6,1 C 3,9 C 11,7 C 85 % 1017,8 hPa 0,0 l/m 0,1 km/h (0 Bft) N 354 0 min 0,0 UV-I 0 W/m 3,8 C 6,1 C 1,6 km/h (1 Bft)
12.10.2021 21:56 6,0 C 3,9 C 11,7 C 85 % 1017,8 hPa 0,0 l/m 0,0 km/h (0 Bft) N 354 0 min 0,0 UV-I 0 W/m 3,7 C 6,0 C 0,0 km/h (0 Bft)
12.10.2021 21:58 5,9 C 3,3 C 11,7 C 85 % 1017,7 hPa 0,0 l/m 0,0 km/h (0 Bft) N 354 0 min 0,0 UV-I 0 W/m 3,6 C 5,9 C 0,0 km/h (0 Bft)
12.10.2021 22:00 5,8 C 3,3 C 11,7 C 85 % 1017,8 hPa 0,0 l/m 0,0 km/h (0 Bft) N 354 0 min 0,0 UV-I 0 W/m 3,5 C 5,8 C 0,0 km/h (0 Bft)
12.10.2021 22:02 5,7 C 2,8 C 11,7 C 85 % 1017,8 hPa 0,0 l/m 0,0 km/h (0 Bft) N 354 0 min 0,0 UV-I 0 W/m 3,4 C 5,7 C 0,0 km/h (0 Bft)
12.10.2021 22:04 5,6 C 2,8 C 11,7 C 85 % 1017,8 hPa 0,0 l/m 0,0 km/h (0 Bft) N 354 0 min 0,0 UV-I 0 W/m 3,3 C 5,6 C 0,0 km/h (0 Bft)
12.10.2021 22:06 5,6 C 3,3 C 11,7 C 86 % 1017,9 hPa 0,0 l/m 0,0 km/h (0 Bft) N 354 0 min 0,0 UV-I 0 W/m 3,4 C 5,6 C 0,0 km/h (0 Bft)
12.10.2021 22:08 5,5 C 3,3 C 11,7 C 86 % 1017,9 hPa 0,0 l/m 0,1 km/h (0 Bft) N 354 0 min 0,0 UV-I 0 W/m 3,3 C 5,5 C 1,6 km/h (1 Bft)
12.10.2021 22:10 5,6 C 3,9 C 11,7 C 86 % 1017,9 hPa 0,0 l/m 0,1 km/h (0 Bft) N 354 0 min 0,0 UV-I 0 W/m 3,4 C 5,6 C 1,6 km/h (1 Bft)
12.10.2021 22:12 5,7 C 3,9 C 11,7 C 86 % 1018,0 hPa 0,0 l/m 0,0 km/h (0 Bft) N 354 0 min 0,0 UV-I 0 W/m 3,5 C 5,7 C 0,0 km/h (0 Bft)
12.10.2021 22:14 5,7 C 3,9 C 11,7 C 86 % 1017,9 hPa 0,0 l/m 0,0 km/h (0 Bft) N 354 0 min 0,0 UV-I 0 W/m 3,5 C 5,7 C 0,0 km/h (0 Bft)
12.10.2021 22:16 5,7 C 3,9 C 11,7 C 86 % 1017,9 hPa 0,0 l/m 0,0 km/h (0 Bft) N 354 0 min 0,0 UV-I 0 W/m 3,5 C 5,7 C 0,0 km/h (0 Bft)
12.10.2021 22:18 5,7 C 3,3 C 11,7 C 86 % 1017,9 hPa 0,0 l/m 0,0 km/h (0 Bft) N 354 0 min 0,0 UV-I 0 W/m 3,5 C 5,7 C 1,6 km/h (1 Bft)
12.10.2021 22:20 5,6 C 3,3 C 11,7 C 86 % 1018,0 hPa 0,0 l/m 0,0 km/h (0 Bft) N 354 0 min 0,0 UV-I 0 W/m 3,4 C 5,6 C 0,0 km/h (0 Bft)
12.10.2021 22:22 5,6 C 2,8 C 11,7 C 86 % 1018,0 hPa 0,0 l/m 0,5 km/h (0 Bft) N 354 0 min 0,0 UV-I 0 W/m 3,4 C 5,6 C 1,6 km/h (1 Bft)
12.10.2021 22:24 5,6 C 2,8 C 11,7 C 86 % 1018,0 hPa 0,0 l/m 0,9 km/h (0 Bft) N 354 0 min 0,0 UV-I 0 W/m 3,4 C 5,6 C 3,2 km/h (1 Bft)
12.10.2021 22:26 5,6 C 2,8 C 11,7 C 86 % 1018,0 hPa 0,0 l/m 1,6 km/h (1 Bft) N 354 0 min 0,0 UV-I 0 W/m 3,4 C 5,6 C 3,2 km/h (1 Bft)
12.10.2021 22:28 5,5 C 2,8 C 11,7 C 86 % 1018,0 hPa 0,0 l/m 1,7 km/h (1 Bft) N 354 0 min 0,0 UV-I 0 W/m 3,3 C 5,5 C 4,8 km/h (1 Bft)
12.10.2021 22:30 5,4 C 2,8 C 11,7 C 86 % 1018,0 hPa 0,0 l/m 2,3 km/h (1 Bft) N 354 0 min 0,0 UV-I 0 W/m 3,3 C 5,4 C 4,8 km/h (1 Bft)
12.10.2021 22:32 5,4 C 2,8 C 11,7 C 86 % 1018,0 hPa 0,0 l/m 2,2 km/h (1 Bft) N 354 0 min 0,0 UV-I 0 W/m 3,3 C 5,4 C 3,2 km/h (1 Bft)
12.10.2021 22:34 5,4 C 2,8 C 11,7 C 86 % 1018,1 hPa 0,0 l/m 1,5 km/h (1 Bft) N 354 0 min 0,0 UV-I 0 W/m 3,3 C 5,4 C 3,2 km/h (1 Bft)
12.10.2021 22:36 5,3 C 2,2 C 11,7 C 86 % 1018,1 hPa 0,0 l/m 1,7 km/h (1 Bft) N 354 0 min 0,0 UV-I 0 W/m 3,2 C 5,3 C 3,2 km/h (1 Bft)
12.10.2021 22:38 5,2 C 2,2 C 11,7 C 86 % 1018,0 hPa 0,0 l/m 1,8 km/h (1 Bft) N 354 0 min 0,0 UV-I 0 W/m 3,1 C 5,2 C 3,2 km/h (1 Bft)
12.10.2021 22:40 5,1 C 2,2 C 11,7 C 86 % 1018,2 hPa 0,0 l/m 1,7 km/h (1 Bft) N 354 0 min 0,0 UV-I 0 W/m 3,0 C 5,1 C 3,2 km/h (1 Bft)
12.10.2021 22:42 5,1 C 1,7 C 11,7 C 87 % 1018,2 hPa 0,0 l/m 2,0 km/h (1 Bft) N 354 0 min 0,0 UV-I 0 W/m 3,1 C 5,1 C 3,2 km/h (1 Bft)
12.10.2021 22:44 4,9 C 1,7 C 11,7 C 87 % 1018,2 hPa 0,0 l/m 2,6 km/h (1 Bft) N 354 0 min 0,0 UV-I 0 W/m 2,9 C 4,9 C 3,2 km/h (1 Bft)
12.10.2021 22:46 4,9 C 1,7 C 11,7 C 87 % 1018,2 hPa 0,0 l/m 1,8 km/h (1 Bft) N 354 0 min 0,0 UV-I 0 W/m 2,9 C 4,9 C 3,2 km/h (1 Bft)
12.10.2021 22:48 4,8 C 1,7 C 11,7 C 87 % 1018,2 hPa 0,0 l/m 2,4 km/h (1 Bft) N 354 0 min 0,0 UV-I 0 W/m 2,8 C 4,8 C 3,2 km/h (1 Bft)
12.10.2021 22:50 4,8 C 1,7 C 11,7 C 87 % 1018,2 hPa 0,0 l/m 1,6 km/h (1 Bft) N 354 0 min 0,0 UV-I 0 W/m 2,8 C 4,8 C 3,2 km/h (1 Bft)
12.10.2021 22:52 4,7 C 1,7 C 11,7 C 87 % 1018,3 hPa 0,0 l/m 3,0 km/h (1 Bft) N 354 0 min 0,0 UV-I 0 W/m 2,7 C 4,7 C 4,8 km/h (1 Bft)
12.10.2021 22:54 4,7 C 1,7 C 11,7 C 87 % 1018,3 hPa 0,0 l/m 2,8 km/h (1 Bft) N-NW 340 0 min 0,0 UV-I 0 W/m 2,7 C 4,7 C 4,8 km/h (1 Bft)
12.10.2021 22:56 4,7 C 1,7 C 11,7 C 87 % 1018,3 hPa 0,0 l/m 1,6 km/h (1 Bft) N-NW 338 0 min 0,0 UV-I 0 W/m 2,7 C 4,7 C 3,2 km/h (1 Bft)
12.10.2021 22:58 4,7 C 1,7 C 11,7 C 87 % 1018,2 hPa 0,0 l/m 0,0 km/h (0 Bft) N-NW 338 0 min 0,0 UV-I 0 W/m 2,7 C 4,7 C 0,0 km/h (0 Bft)
12.10.2021 23:00 4,6 C 1,7 C 11,7 C 87 % 1018,3 hPa 0,0 l/m 0,4 km/h (0 Bft) N-NW 338 0 min 0,0 UV-I 0 W/m 2,6 C 4,6 C 1,6 km/h (1 Bft)
12.10.2021 23:02 4,6 C 1,1 C 11,7 C 87 % 1018,3 hPa 0,0 l/m 1,1 km/h (1 Bft) N-NW 338 0 min 0,0 UV-I 0 W/m 2,6 C 4,6 C 3,2 km/h (1 Bft)
12.10.2021 23:04 4,5 C 1,1 C 11,7 C 87 % 1018,3 hPa 0,0 l/m 1,5 km/h (1 Bft) N-NW 338 0 min 0,0 UV-I 0 W/m 2,5 C 4,5 C 3,2 km/h (1 Bft)
12.10.2021 23:06 4,4 C 1,1 C 11,7 C 87 % 1018,4 hPa 0,0 l/m 0,3 km/h (0 Bft) N-NW 338 0 min 0,0 UV-I 0 W/m 2,4 C 4,4 C 1,6 km/h (1 Bft)
12.10.2021 23:08 4,4 C 1,1 C 11,7 C 87 % 1018,4 hPa 0,0 l/m 0,0 km/h (0 Bft) N-NW 338 0 min 0,0 UV-I 0 W/m 2,4 C 4,4 C 0,0 km/h (0 Bft)
12.10.2021 23:10 4,3 C 1,1 C 11,7 C 87 % 1018,4 hPa 0,0 l/m 0,0 km/h (0 Bft) N-NW 338 0 min 0,0 UV-I 0 W/m 2,3 C 4,3 C 0,0 km/h (0 Bft)
12.10.2021 23:12 4,2 C 1,1 C 11,7 C 87 % 1018,4 hPa 0,0 l/m 0,0 km/h (0 Bft) N-NW 338 0 min 0,0 UV-I 0 W/m 2,2 C 4,2 C 0,0 km/h (0 Bft)
12.10.2021 23:14 4,2 C 1,1 C 11,7 C 88 % 1018,5 hPa 0,0 l/m 0,0 km/h (0 Bft) N-NW 338 0 min 0,0 UV-I 0 W/m 2,4 C 4,2 C 0,0 km/h (0 Bft)
12.10.2021 23:16 4,1 C 1,1 C 11,7 C 88 % 1018,5 hPa 0,0 l/m 0,0 km/h (0 Bft) N-NW 338 0 min 0,0 UV-I 0 W/m 2,3 C 4,1 C 0,0 km/h (0 Bft)
12.10.2021 23:18 4,1 C 1,1 C 11,7 C 88 % 1018,5 hPa 0,0 l/m 0,0 km/h (0 Bft) N-NW 338 0 min 0,0 UV-I 0 W/m 2,3 C 4,1 C 0,0 km/h (0 Bft)
12.10.2021 23:20 4,0 C 1,1 C 11,7 C 88 % 1018,6 hPa 0,0 l/m 0,0 km/h (0 Bft) N-NW 338 0 min 0,0 UV-I 0 W/m 2,2 C 4,0 C 0,0 km/h (0 Bft)
12.10.2021 23:22 4,0 C 1,1 C 11,7 C 88 % 1018,6 hPa 0,0 l/m 0,0 km/h (0 Bft) N-NW 338 0 min 0,0 UV-I 0 W/m 2,2 C 4,0 C 0,0 km/h (0 Bft)
12.10.2021 23:24 3,9 C 0,6 C 11,7 C 88 % 1018,6 hPa 0,0 l/m 0,0 km/h (0 Bft) N-NW 338 0 min 0,0 UV-I 0 W/m 2,1 C 3,9 C 0,0 km/h (0 Bft)
12.10.2021 23:26 3,8 C 0,6 C 11,7 C 88 % 1018,6 hPa 0,0 l/m 0,2 km/h (0 Bft) N-NW 338 0 min 0,0 UV-I 0 W/m 2,0 C 3,8 C 1,6 km/h (1 Bft)
12.10.2021 23:28 3,9 C 0,6 C 11,7 C 88 % 1018,7 hPa 0,0 l/m 2,0 km/h (1 Bft) N-NW 338 0 min 0,0 UV-I 0 W/m 2,1 C 3,9 C 3,2 km/h (1 Bft)
12.10.2021 23:30 3,9 C 0,6 C 11,7 C 88 % 1018,6 hPa 0,0 l/m 3,0 km/h (1 Bft) N-NW 338 0 min 0,0 UV-I 0 W/m 2,1 C 3,9 C 4,8 km/h (1 Bft)
12.10.2021 23:32 3,9 C 0,6 C 11,7 C 88 % 1018,7 hPa 0,0 l/m 2,7 km/h (1 Bft) N-NW 338 0 min 0,0 UV-I 0 W/m 2,1 C 3,9 C 4,8 km/h (1 Bft)
12.10.2021 23:34 3,9 C 0,6 C 11,7 C 88 % 1018,7 hPa 0,0 l/m 4,0 km/h (1 Bft) N-NW 338 0 min 0,0 UV-I 0 W/m 2,1 C 3,9 C 6,4 km/h (2 Bft)
12.10.2021 23:36 4,0 C 0,6 C 11,7 C 88 % 1018,7 hPa 0,0 l/m 4,0 km/h (1 Bft) N-NW 333 0 min 0,0 UV-I 0 W/m 2,2 C 4,0 C 6,4 km/h (2 Bft)
12.10.2021 23:38 4,1 C 1,1 C 11,7 C 89 % 1018,8 hPa 0,0 l/m 4,1 km/h (1 Bft) N-NW 330 0 min 0,0 UV-I 0 W/m 2,5 C 4,1 C 6,4 km/h (2 Bft)
12.10.2021 23:40 4,2 C 0,6 C 11,7 C 89 % 1018,8 hPa 0,0 l/m 3,7 km/h (1 Bft) N-NW 329 0 min 0,0 UV-I 0 W/m 2,6 C 4,2 C 6,4 km/h (2 Bft)
12.10.2021 23:42 4,2 C 1,1 C 11,7 C 89 % 1018,8 hPa 0,0 l/m 3,4 km/h (1 Bft) N-NW 329 0 min 0,0 UV-I 0 W/m 2,6 C 4,2 C 4,8 km/h (1 Bft)
12.10.2021 23:44 4,2 C 1,1 C 11,1 C 89 % 1018,8 hPa 0,0 l/m 3,2 km/h (1 Bft) N-NW 329 0 min 0,0 UV-I 0 W/m 2,6 C 4,2 C 4,8 km/h (1 Bft)
12.10.2021 23:46 4,2 C 1,1 C 11,7 C 89 % 1018,7 hPa 0,0 l/m 2,6 km/h (1 Bft) N-NW 329 0 min 0,0 UV-I 0 W/m 2,6 C 4,2 C 4,8 km/h (1 Bft)
12.10.2021 23:48 4,2 C 0,6 C 11,7 C 89 % 1018,8 hPa 0,0 l/m 2,6 km/h (1 Bft) N-NW 329 0 min 0,0 UV-I 0 W/m 2,6 C 4,2 C 3,2 km/h (1 Bft)
12.10.2021 23:50 4,2 C 1,1 C 11,7 C 89 % 1018,8 hPa 0,0 l/m 3,1 km/h (1 Bft) NW 318 0 min 0,0 UV-I 0 W/m 2,6 C 4,2 C 4,8 km/h (1 Bft)
12.10.2021 23:52 4,2 C 0,6 C 11,7 C 88 % 1018,7 hPa 0,0 l/m 2,7 km/h (1 Bft) NW 318 0 min 0,0 UV-I 0 W/m 2,4 C 4,2 C 4,8 km/h (1 Bft)
12.10.2021 23:54 4,2 C 1,1 C 11,1 C 89 % 1018,8 hPa 0,0 l/m 1,9 km/h (1 Bft) NW 318 0 min 0,0 UV-I 0 W/m 2,6 C 4,2 C 3,2 km/h (1 Bft)
12.10.2021 23:56 4,2 C 1,1 C 11,7 C 89 % 1018,9 hPa 0,0 l/m 0,9 km/h (0 Bft) NW 318 0 min 0,0 UV-I 0 W/m 2,6 C 4,2 C 1,6 km/h (1 Bft)
12.10.2021 23:58 4,2 C 1,1 C 11,7 C 89 % 1018,8 hPa 0,0 l/m 0,3 km/h (0 Bft) NW 318 0 min 0,0 UV-I 0 W/m 2,6 C 4,2 C 1,6 km/h (1 Bft)
_ Min-Zeit 23:26 23:52 23:54 16:36 15:42 - 23:24 - - - - - 23:26 23:26 23:24
Minimum _ 3,8 C 0,6 C 11,1 C 55 % 1014,7 hPa - 0,0 km/h (0 Bft) - - - - - 2,0 C 3,8 C 0,0 km/h (0 Bft)
_ Max-Zeit 15:54 15:14 20:08 12:26 00:16 11:08 16:18 - - 18:12 13:52 13:44 13:12 15:54 16:24
Maximum _ 13,2 C 22,2 C 12,2 C 90 % 1021,8 hPa 0,4 l/m 16,7 km/h
N (3 Bft)
- - 2 min 1,9 UV-I 578 W/m 8,9 C 13,2 C 25,7 km/h
NO (4 Bft)
Durchschnitt _ 8,4 C 7,7 C 11,7 C 83 % 1017,7 hPa #7,4 l/m 5,1 km/h (1 Bft) W-NW - #3:36 h 1,0 UV-I 152 W/m 5,5 C 8,2 C 9,1 km/h (2 Bft)